GFSNE_925_spd_060.txt.gz
Wind_Speed
15 17 17 22 24 25 25 21 10 2 2 3 8 15 17 19 22 25 29 33 29 26 24 22 22 25 22 18 18 20 21 20 18 17 18 19 18 19
16 18 19 18 14 14 13 12 14 10 3 11 19 16 16 15 20 23 27 23 21 19 19 18 21 20 19 19 19 19 18 18 19 19 19 19 19 19
12 10 7 7 7 7 6 4 7 10 5 6 8 10 15 19 18 19 18 23 20 17 15 15 17 19 20 18 15 16 17 19 19 19 19 19 19 18
8 7 6 6 7 7 6 3 1 2 3 3 4 9 8 11 17 13 14 15 18 19 16 15 17 17 13 14 15 17 16 17 18 18 18 18 18 18
8 9 9 7 8 8 7 6 5 2 1 3 3 4 5 8 10 11 14 14 12 11 10 10 11 13 14 13 14 16 16 16 16 16 16 17 18 18
12 12 13 12 10 9 7 6 5 4 4 5 4 4 2 1 4 5 5 7 7 7 8 8 10 13 13 14 14 14 15 15 16 16 16 17 18 18
15 16 17 15 12 8 7 7 6 6 6 6 5 3 2 3 2 2 5 4 4 6 7 12 14 14 14 15 17 17 16 15 14 14 15 17 18 19
14 13 11 11 13 13 11 9 8 6 5 3 2 2 2 1 2 3 4 2 2 3 6 11 15 18 14 12 12 13 13 13 14 15 16 17 18 19
12 11 11 11 8 7 6 5 4 5 4 1 0 1 1 0 1 2 2 4 6 9 10 14 12 15 8 9 11 13 13 13 14 13 12 14 16 18
11 10 9 9 9 7 5 4 4 4 3 3 3 1 1 2 4 5 6 7 9 13 12 6 7 12 10 11 14 14 10 7 7 9 14 15 16 18
8 9 9 7 7 7 8 6 4 3 1 2 1 2 3 5 7 6 6 6 5 2 3 8 5 11 16 9 5 6 5 8 13 14 13 16 18 19
6 6 5 7 6 7 9 9 7 5 6 8 8 7 6 5 7 8 7 8 5 4 1 2 4 8 8 6 7 8 16 14 12 17 18 17 16 18
7 8 7 7 9 9 8 9 7 7 8 9 7 4 3 3 2 3 4 5 6 8 8 9 5 6 6 9 16 18 20 14 24 24 16 15 15 15
8 8 10 9 8 9 8 6 5 6 8 5 4 4 4 2 3 6 8 9 13 15 16 17 13 11 14 15 14 14 25 28 23 21 20 15 18 18
7 9 12 10 9 9 8 6 6 6 3 4 5 7 6 7 9 10 9 10 12 13 14 16 19 21 22 19 20 25 23 17 31 18 17 25 25 25
10 12 11 8 6 6 7 5 5 5 5 6 6 7 8 7 8 9 11 12 15 16 12 12 16 19 22 23 24 28 24 16 22 30 30 29 29 28
12 13 11 8 9 10 8 7 7 6 6 7 8 9 10 11 13 12 13 14 15 20 21 18 14 16 21 24 25 27 28 28 27 31 27 28 28 28
12 11 9 8 10 9 9 9 9 8 8 9 11 13 14 15 17 16 15 17 18 20 23 22 20 19 17 21 25 30 27 27 25 27 30 25 30 27
9 8 9 10 10 10 10 10 12 10 11 13 14 15 15 16 16 19 21 20 20 21 25 24 23 19 8 9 19 20 28 26 25 26 25 27 29 33
11 11 12 12 12 12 12 13 13 13 13 14 16 16 17 17 17 18 21 22 21 23 25 25 22 22 17 12 17 31 26 29 27 30 29 27 31 31
12 13 13 14 14 14 15 16 15 16 16 16 18 19 18 18 21 20 20 21 22 21 20 23 25 21 24 25 19 29 33 25 26 30 28 26 28 28
12 14 15 15 16 16 17 18 18 19 19 19 21 22 23 24 24 23 23 22 22 22 25 28 29 25 23 20 23 28 32 32 29 28 31 33 31 10
14 15 16 16 17 18 19 19 20 22 22 23 24 25 24 25 26 26 25 24 24 24 23 25 24 22 25 24 27 28 32 32 29 30 33 30 33 38

GFSNE_925_spd_063.txt.gz
Wind_Speed
5 6 6 5 9 12 17 20 10 2 3 6 7 9 14 18 19 22 23 23 27 28 28 24 21 22 22 21 21 20 19 21 21 20 19 19 18 18
5 6 6 9 9 8 7 7 8 8 3 2 4 11 12 11 9 18 18 19 23 22 23 21 20 20 20 18 19 19 19 19 16 16 18 18 19 18
7 7 6 5 4 3 3 2 3 4 2 3 7 10 9 6 9 10 12 19 21 17 14 14 16 17 15 15 18 18 12 11 14 17 18 18 18 18
10 8 8 7 6 5 5 4 3 3 3 3 4 4 4 6 9 10 11 12 14 15 16 14 14 15 15 17 15 13 13 14 15 15 16 17 17 17
11 10 10 8 8 7 7 6 5 3 1 1 1 2 1 3 6 7 7 8 11 11 11 10 11 13 13 13 13 12 12 14 16 15 14 14 16 17
15 15 15 13 10 9 9 8 7 6 6 5 3 2 3 3 1 3 3 4 6 7 6 6 8 9 10 10 12 13 13 13 14 14 14 15 16 17
16 16 18 16 14 12 11 10 8 7 7 6 3 2 2 2 1 0 1 2 3 4 5 7 10 13 16 17 19 18 16 15 14 13 13 13 16 17
14 12 11 10 9 12 11 11 11 10 8 5 4 3 3 3 2 1 1 0 1 2 4 8 11 18 18 18 17 15 13 13 11 11 13 15 16 17
13 12 12 12 11 9 8 7 6 7 7 5 4 4 4 4 4 4 3 3 4 8 11 14 13 19 13 12 11 11 11 12 12 13 14 14 14 15
12 11 11 10 11 11 10 7 6 6 5 4 3 3 4 5 6 7 7 9 11 13 12 6 9 12 13 11 12 15 16 14 11 9 10 13 15 16
8 8 10 9 8 9 11 9 7 2 0 1 2 3 3 4 7 7 6 6 5 4 3 6 7 13 14 14 10 3 6 9 9 11 13 14 16 18
7 6 5 7 8 9 11 10 10 6 6 7 8 7 7 6 7 7 7 8 6 5 3 3 6 9 8 5 4 9 12 9 13 12 15 17 17 18
7 7 8 8 8 8 8 10 9 9 8 10 8 4 3 3 1 1 3 4 5 7 8 6 6 6 7 9 16 14 17 22 14 23 20 15 16 15
7 8 10 11 9 9 9 8 7 8 10 7 4 4 3 2 3 4 6 8 10 13 15 16 12 11 13 16 14 12 21 27 27 21 18 19 13 17
7 6 9 8 7 8 7 6 7 7 5 4 4 5 5 6 9 10 9 9 12 13 14 15 18 20 21 20 22 24 22 15 28 28 13 14 25 25
8 8 10 8 5 6 7 5 5 5 5 6 6 7 8 8 8 9 12 12 15 17 12 11 15 17 21 23 23 30 25 16 20 27 29 30 30 25
9 11 11 8 8 8 7 6 6 6 6 7 8 9 10 11 12 12 13 14 15 20 23 17 13 15 19 24 25 28 29 27 26 26 21 21 22 26
10 10 10 8 10 10 9 10 9 8 7 9 11 13 14 14 15 15 14 14 18 21 23 22 20 18 16 18 23 29 25 26 27 24 23 24 28 28
11 10 10 10 12 11 11 11 13 12 10 12 14 14 15 17 15 17 16 19 21 20 24 23 21 18 7 8 15 18 27 29 29 28 28 26 28 36
13 13 13 13 13 13 13 13 14 14 14 14 15 17 18 16 17 18 19 19 19 22 24 24 21 20 16 9 12 25 24 28 30 28 28 28 31 31
13 14 14 14 14 15 15 15 16 17 17 17 18 19 20 21 24 23 23 22 21 20 21 23 24 19 23 23 16 25 28 24 26 31 25 24 27 28
13 14 15 15 15 16 17 17 19 19 20 20 21 21 22 22 24 26 24 23 21 21 24 28 27 23 21 18 21 24 28 27 22 24 28 30 27 8
15 15 16 16 17 17 18 19 20 22 22 22 22 23 23 24 24 24 25 24 23 23 22 25 23 20 22 22 25 28 31 31 28 26 31 29 33 38

GFSNE_925_spd_066.txt.gz
Wind_Speed
4 5 5 5 7 7 8 11 7 2 2 3 3 7 11 12 10 9 10 11 12 20 21 20 23 30 27 25 21 18 15 15 20 24 23 20 17 16
3 3 3 3 4 5 6 6 4 2 1 1 3 11 14 12 10 8 6 7 10 15 16 17 14 7 9 13 16 15 14 18 18 21 13 14 14 14
6 5 5 3 2 3 3 2 1 1 2 3 5 9 10 8 6 3 2 3 5 6 8 6 13 16 18 16 15 15 14 15 11 8 11 14 15 15
9 8 8 7 6 6 5 4 3 2 1 2 5 8 7 6 3 4 5 5 8 7 7 9 11 12 12 11 12 15 14 14 13 11 12 13 15 15
12 11 11 9 10 10 10 9 8 7 5 3 4 6 5 7 5 4 4 4 5 8 10 11 12 11 12 14 13 12 11 9 9 11 12 13 14 13
16 16 16 14 13 12 11 10 9 8 8 6 4 5 6 6 5 5 4 4 3 4 6 7 8 11 9 7 8 11 12 11 11 11 12 13 14 15
15 16 17 17 15 12 11 11 10 9 9 7 5 4 4 5 5 5 3 3 2 1 3 4 7 9 11 13 16 18 19 17 15 13 12 13 14 14
13 11 8 8 7 10 9 10 11 12 9 6 5 4 4 5 4 4 2 2 3 2 5 6 9 14 16 17 18 17 17 14 13 13 12 12 14 14
11 10 10 10 9 8 6 6 7 7 8 6 5 4 4 5 5 5 4 3 4 7 9 10 10 14 7 8 11 11 10 9 10 11 12 12 13 14
9 9 9 9 10 9 10 8 7 6 7 6 5 5 5 5 6 6 6 7 10 8 6 4 6 11 9 8 9 10 11 11 11 11 10 10 11 14
7 7 8 7 7 8 11 10 8 4 2 3 5 5 5 5 8 8 7 9 5 3 5 5 6 15 12 7 6 3 2 6 8 8 8 11 12 14
6 6 5 7 7 7 9 8 9 6 6 6 7 7 8 7 6 7 8 7 5 4 5 7 8 11 8 4 4 2 8 9 9 9 12 11 15 18
7 6 7 8 8 7 7 9 8 8 6 8 7 4 2 2 2 1 2 4 4 6 7 6 7 10 7 9 15 14 14 15 17 20 19 22 21 15
6 6 7 8 7 6 6 7 6 6 8 6 3 3 3 2 3 5 7 7 9 12 13 13 10 10 14 15 12 11 20 25 25 24 19 17 22 21
5 5 7 7 6 6 5 5 6 7 5 4 3 4 5 6 8 9 9 9 12 13 13 13 16 19 19 18 18 22 19 14 28 24 12 10 14 18
5 6 8 8 6 6 7 6 5 5 5 6 6 6 8 9 9 10 13 14 16 17 12 11 13 15 20 23 22 27 22 14 21 27 29 25 24 24
7 8 9 8 7 8 7 6 6 5 5 6 7 8 10 11 13 13 14 15 17 19 22 19 13 14 18 23 25 28 32 28 30 30 23 23 25 23
10 9 9 9 9 10 10 9 8 7 7 7 8 11 13 15 15 15 14 15 16 21 26 25 21 18 16 17 20 30 29 28 26 24 25 23 25 27
11 12 12 11 11 10 10 10 12 10 10 11 13 13 14 15 14 16 15 15 18 22 27 24 20 16 5 7 15 19 28 29 28 28 28 28 27 36
14 14 15 13 13 13 12 13 13 13 14 13 14 16 16 18 19 19 21 22 23 24 26 23 20 19 15 8 11 25 22 27 28 28 30 30 31 30
15 14 13 13 14 14 14 14 15 16 16 17 17 18 18 18 21 23 24 20 19 20 21 23 25 19 22 21 15 25 29 24 25 29 27 23 24 26
17 16 14 15 15 15 15 16 17 18 18 19 19 19 19 19 21 23 23 23 22 22 26 30 28 24 21 19 23 24 26 27 25 23 27 30 23 7
17 17 16 16 16 16 17 19 19 20 20 20 20 20 19 20 20 21 23 23 23 23 24 25 24 21 22 23 26 27 28 30 26 26 33 28 32 39

GFSNE_925_spd_069.txt.gz
Wind_Speed
3 3 4 5 6 7 7 5 4 3 3 2 2 5 12 13 15 12 9 7 9 12 9 7 8 7 14 14 19 22 20 15 15 14 16 16 19 19
4 4 4 5 5 4 3 3 4 4 2 2 2 7 9 10 9 9 8 6 7 10 5 5 1 4 5 7 9 13 14 10 12 15 15 16 13 10
2 3 3 3 2 3 3 2 2 0 1 1 2 6 7 8 5 4 3 4 5 6 4 3 4 6 5 7 7 9 13 14 18 16 14 9 9 10
8 7 7 5 5 5 5 4 3 2 1 1 2 5 5 6 6 5 3 3 4 4 3 1 2 6 8 8 9 10 12 12 12 12 13 12 11 12
10 10 10 8 9 8 8 7 6 4 3 0 1 4 4 6 5 6 5 4 3 6 7 6 6 7 9 9 9 10 11 12 11 11 10 11 13 13
15 15 14 13 12 11 10 8 6 4 4 2 2 2 4 5 6 7 6 7 6 4 4 4 5 8 9 8 10 11 12 11 10 10 9 10 11 12
15 14 13 12 10 9 8 8 7 5 3 3 3 2 3 5 5 5 4 5 6 6 6 5 4 5 6 9 11 12 13 14 14 13 13 12 12 12
11 9 7 4 4 8 6 7 8 6 4 2 2 2 2 3 4 4 4 4 3 4 7 8 11 12 13 15 15 16 16 15 14 13 12 13 12 12
9 8 7 8 6 6 4 4 4 6 5 4 2 2 2 2 3 3 3 3 4 7 9 8 9 9 9 9 9 12 11 10 10 11 11 11 12 12
7 7 6 7 6 7 7 6 4 3 5 5 4 4 3 4 3 3 3 5 7 5 3 4 6 8 9 10 9 9 9 10 10 11 12 12 12 11
5 5 4 4 4 4 6 5 4 2 2 3 4 5 5 4 5 6 3 4 3 0 3 3 4 10 7 4 3 3 3 3 7 9 10 9 10 12
3 3 2 4 4 3 6 5 5 3 4 5 6 6 5 4 4 4 4 2 2 1 1 5 4 7 5 2 2 2 6 8 9 11 11 9 10 12
2 2 3 4 5 3 5 6 6 5 5 7 5 3 2 1 1 1 2 2 2 3 3 7 6 8 4 7 10 9 11 9 10 14 19 20 21 20
2 2 3 5 4 3 3 3 3 5 6 3 2 2 2 2 3 5 6 6 7 9 11 11 7 7 10 13 10 7 12 17 17 16 15 17 20 20
3 2 4 5 5 5 2 2 5 5 4 3 3 3 3 5 6 8 7 8 10 12 11 12 12 14 13 13 16 16 15 9 19 14 7 13 18 20
4 4 5 6 5 5 5 5 5 4 4 5 6 6 6 7 6 7 9 10 12 11 9 8 9 13 14 16 19 22 18 13 14 19 20 20 18 16
5 6 5 5 6 6 6 6 5 5 6 7 7 7 7 7 8 9 10 11 12 14 12 10 12 14 18 22 21 22 24 21 20 21 17 19 18 18
10 10 9 7 7 8 8 8 7 7 8 8 10 10 10 10 10 10 10 10 14 15 14 12 14 13 11 18 21 26 19 20 20 17 16 18 21 23
13 12 12 12 11 10 10 10 11 9 10 10 12 13 14 15 12 13 13 14 15 16 16 15 13 7 8 9 13 17 23 19 18 19 18 20 24 29
15 15 15 14 13 13 13 13 13 12 13 13 14 14 15 16 14 13 13 14 16 18 18 14 14 13 13 10 14 21 19 23 22 24 23 23 25 27
18 17 15 14 14 13 14 14 14 14 15 15 15 15 15 16 18 18 17 17 17 18 19 19 19 16 19 18 15 24 23 21 23 27 21 19 21 23
18 18 16 15 15 14 14 15 15 16 17 17 18 17 16 16 18 19 18 16 15 17 22 26 23 17 14 18 21 25 24 21 19 23 27 28 25 9
19 18 18 16 16 16 16 16 17 18 19 19 19 18 17 18 18 19 19 18 17 18 19 21 18 16 19 20 23 25 27 27 24 24 28 27 31 37

GFSNE_925_spd_072.txt.gz
Wind_Speed
4 4 4 3 4 5 5 4 5 3 6 1 2 3 6 7 9 10 9 7 10 16 10 6 10 9 4 12 17 19 18 11 8 10 6 7 9 12
4 2 0 0 0 0 1 1 3 5 3 0 3 5 7 7 9 8 6 6 7 11 10 5 8 6 6 4 2 8 10 11 13 12 9 10 12 13
1 2 1 1 2 3 3 2 1 3 3 2 3 5 5 6 6 5 4 4 4 5 3 6 4 2 3 5 7 10 12 12 11 10 12 12 12 11
5 5 6 5 5 4 4 3 1 1 1 2 2 4 4 5 5 4 4 4 4 4 4 3 3 2 2 3 3 4 6 8 11 13 13 13 14 13
7 6 6 6 5 5 5 4 3 3 3 1 1 2 2 5 3 4 4 4 4 5 5 6 5 5 5 5 5 5 6 7 8 9 10 10 9 11
9 9 9 9 6 5 6 4 4 3 3 2 1 2 2 3 3 5 3 4 4 5 6 6 5 6 6 6 7 7 8 9 10 9 9 11 10 9
10 9 9 8 6 7 5 6 5 4 3 2 1 1 2 2 4 5 5 6 4 5 6 5 4 4 4 6 7 9 11 11 12 12 10 10 11 11
7 5 5 3 3 6 5 6 6 4 2 1 1 2 2 2 3 4 5 7 4 5 8 8 7 7 6 6 9 12 13 14 14 15 14 13 13 12
7 5 4 4 5 5 5 4 4 4 3 2 1 2 2 2 3 4 5 6 7 9 10 7 6 6 5 6 9 8 9 10 10 11 12 12 12 11
5 4 3 3 3 5 4 4 2 2 3 3 2 2 1 3 3 3 5 7 7 4 5 5 7 7 8 7 10 7 7 7 8 9 10 11 12 12
3 2 2 1 2 4 3 3 3 2 3 4 5 5 6 6 4 5 5 5 5 2 3 4 6 11 9 5 5 3 2 3 4 7 10 12 12 12
2 1 0 1 1 2 3 3 4 3 3 4 5 5 4 3 3 3 3 4 3 4 2 6 6 8 6 4 5 5 6 8 9 9 11 10 10 10
2 2 2 3 3 2 4 3 4 4 5 6 5 3 1 0 1 0 1 1 3 4 3 5 5 6 4 7 10 8 8 9 8 9 11 15 16 16
3 3 2 3 4 4 3 3 5 5 5 5 4 4 3 2 3 3 5 6 6 9 9 8 6 6 8 12 10 5 8 12 12 12 11 13 16 19
4 4 5 6 6 5 4 4 6 5 5 5 5 5 4 5 7 7 6 8 10 11 12 12 11 11 11 12 14 14 13 7 16 17 11 10 12 13
6 5 6 6 7 6 6 6 6 5 5 6 6 6 6 6 6 7 8 9 10 9 8 10 11 11 13 16 17 19 16 12 8 13 17 18 17 17
6 6 6 5 6 6 7 7 6 6 6 7 7 7 7 7 8 7 9 10 11 11 9 8 8 12 16 19 20 22 21 19 19 18 15 18 20 19
8 9 8 7 8 8 7 7 7 8 8 7 7 8 9 9 9 9 9 10 12 11 11 9 10 12 12 13 20 24 18 18 16 15 15 17 22 20
13 11 10 9 10 9 9 9 9 8 10 10 9 9 9 10 10 11 11 12 13 13 12 11 11 11 9 9 13 16 19 16 16 17 19 20 25 26
16 14 12 11 11 11 11 11 10 10 10 10 10 10 10 10 11 12 11 12 13 14 14 12 13 14 15 12 14 19 19 23 22 22 23 22 25 28
16 16 16 14 13 12 12 12 12 12 12 11 11 11 11 11 12 13 13 15 16 17 18 16 14 14 17 17 14 20 21 20 24 26 22 21 22 24
19 18 17 16 16 15 14 13 13 13 14 13 13 12 12 12 14 14 14 15 15 16 19 19 16 15 14 15 19 22 23 22 22 24 28 30 22 8
25 21 19 19 18 17 17 16 16 16 16 16 15 15 14 14 14 14 15 16 16 17 17 18 16 16 18 19 22 23 25 25 23 23 28 25 30 37

GFSNE_925_spd_075.txt.gz
Wind_Speed
5 3 2 1 2 3 4 5 6 2 2 3 2 2 3 7 9 9 10 10 13 15 10 9 11 12 13 17 7 11 15 23 20 24 25 19 17 13
5 4 3 3 4 2 1 2 4 4 2 2 2 3 5 5 10 8 8 7 8 11 8 9 10 10 11 12 11 11 11 16 10 12 15 13 11 12
1 2 3 2 1 1 2 2 2 3 4 1 3 5 4 4 6 6 7 6 6 6 7 6 6 6 6 8 8 10 9 8 9 11 11 10 10 10
2 4 4 4 4 3 2 2 1 0 1 0 2 5 4 6 5 6 7 6 6 8 6 5 4 5 4 4 3 2 0 2 4 6 7 7 7 8
5 6 6 5 6 5 4 5 4 3 3 2 1 2 2 4 3 5 5 6 6 9 8 7 6 4 3 2 3 3 4 4 5 6 7 6 8 9
8 8 9 8 7 6 7 6 5 3 2 1 2 2 2 5 6 7 5 5 6 6 8 10 8 7 5 5 4 4 5 6 6 7 8 8 10 10
7 7 8 7 6 6 5 4 4 3 4 3 2 3 3 5 7 7 7 8 6 7 6 5 7 4 6 6 5 5 7 8 9 9 8 6 6 7
5 5 5 4 5 5 5 5 5 4 4 3 2 4 3 4 5 5 7 7 4 7 10 10 8 7 6 6 10 11 10 10 10 10 11 10 9 10
5 4 4 5 5 5 6 5 5 4 4 4 4 4 4 4 5 6 5 6 7 11 11 6 6 7 6 7 12 12 9 9 9 8 9 9 9 10
5 3 4 3 1 3 3 3 2 2 2 3 3 1 1 1 3 5 6 8 9 4 7 4 8 7 8 6 11 10 6 6 6 6 6 7 7 9
3 2 2 2 2 3 3 4 2 1 4 3 4 5 5 6 6 4 5 6 7 1 4 4 8 13 9 6 5 8 5 5 4 4 6 8 9 11
1 2 1 2 2 2 1 2 3 2 2 2 4 6 5 4 2 1 2 3 4 5 2 6 8 9 7 3 7 7 7 5 8 7 9 11 10 12
3 3 4 4 2 2 2 2 2 3 3 4 4 2 2 2 1 1 1 0 3 5 5 5 5 7 5 8 14 9 10 10 7 8 8 9 11 13
4 4 6 5 4 4 2 3 4 3 3 4 4 3 3 3 3 5 6 6 7 9 11 9 6 7 10 12 10 9 11 12 15 15 11 10 12 14
6 7 9 6 5 5 5 5 5 3 5 5 5 5 5 7 9 7 7 7 9 10 11 11 14 13 14 13 14 15 15 8 17 18 16 13 11 13
10 9 7 7 7 7 8 6 5 5 6 6 7 6 7 8 7 7 8 8 10 10 8 10 11 13 16 16 17 20 17 12 8 13 15 19 21 21
9 8 8 7 7 6 7 7 7 7 8 7 8 8 8 8 9 9 10 10 11 11 11 11 12 12 16 19 22 24 24 21 19 19 17 19 20 20
11 11 11 11 10 9 8 8 9 9 10 9 9 10 10 10 10 10 11 12 13 13 13 11 11 14 17 18 19 25 20 19 16 15 15 19 21 20
15 14 14 13 12 11 11 12 12 11 11 13 12 12 11 12 11 12 13 13 15 15 15 13 12 12 10 8 12 15 22 20 19 20 20 22 24 26
20 18 17 15 14 14 14 14 14 13 13 13 12 13 13 13 13 14 14 15 15 15 15 14 15 16 15 13 12 20 20 24 25 25 24 25 27 27
21 21 21 19 18 17 16 16 16 16 15 15 15 15 16 15 16 16 16 16 16 17 17 16 16 15 17 17 18 23 24 21 22 27 27 22 23 25
21 22 21 20 19 18 17 17 17 17 17 18 18 17 17 16 17 18 18 17 16 17 19 18 18 18 19 18 21 23 25 26 25 24 26 30 25 9
24 25 23 22 20 19 19 19 20 20 19 18 18 18 18 19 19 19 19 17 18 18 18 19 18 18 19 20 23 23 26 29 27 25 29 26 27 33

GFSNE_925_spd_078.txt.gz
Wind_Speed
7 5 5 5 3 5 4 4 2 2 2 1 2 1 2 6 7 7 9 8 9 8 10 10 12 14 15 13 17 11 9 12 25 26 30 27 23 18
7 4 5 3 4 4 2 4 3 2 2 0 1 3 3 3 8 7 7 5 4 7 8 8 10 12 14 12 14 15 22 11 8 20 21 22 16 13
3 3 4 4 3 5 4 2 3 3 2 1 1 3 1 2 5 6 6 6 6 4 6 7 8 7 8 8 10 10 10 10 10 10 11 11 11 11
2 3 1 3 2 3 3 3 2 2 2 1 1 4 3 5 4 5 6 5 7 10 8 6 6 5 5 7 7 5 6 8 10 12 11 9 7 7
6 5 5 5 5 4 4 4 5 4 2 1 2 2 3 5 5 6 5 7 7 9 9 11 7 5 4 5 4 3 2 1 1 3 4 5 8 9
6 6 6 5 6 6 5 4 4 5 3 3 2 1 1 3 4 7 4 4 7 7 6 7 9 8 8 7 4 2 1 1 3 3 4 6 7 8
7 7 7 7 6 5 4 3 4 4 3 3 4 1 2 3 4 5 5 7 2 6 8 4 7 6 5 5 7 6 5 5 5 6 7 6 5 7
8 7 5 5 6 6 6 7 5 3 5 2 1 2 3 3 3 5 6 5 3 7 14 9 4 6 4 8 10 10 8 8 8 9 10 10 9 9
8 7 5 5 5 5 6 5 5 6 6 2 4 2 2 3 3 3 4 4 4 9 11 3 7 4 4 6 9 12 7 5 5 7 8 9 9 9
8 7 6 3 3 2 3 4 3 2 1 1 1 1 2 1 1 2 5 6 6 1 7 2 8 8 8 5 7 10 6 4 4 4 4 5 6 7
5 5 7 3 3 2 3 6 2 2 3 3 2 3 4 5 4 3 1 4 2 2 4 5 6 13 7 2 5 6 6 6 5 4 3 4 5 7
4 3 4 3 1 1 1 2 1 1 3 2 2 4 4 2 1 1 3 1 1 1 4 7 7 10 5 2 3 7 8 5 6 7 7 8 8 9
5 4 2 1 1 1 0 2 2 4 2 3 2 2 2 1 1 2 2 2 2 2 2 6 5 5 4 7 11 6 6 6 7 9 10 9 7 9
4 3 4 3 2 2 3 3 4 4 4 4 4 3 4 3 5 6 6 6 6 7 9 9 6 6 9 10 8 10 15 13 13 9 8 9 11 13
6 5 5 5 4 4 5 5 6 6 5 6 6 6 7 7 9 10 5 5 6 8 9 9 11 12 12 13 14 17 16 11 16 6 12 11 12 12
8 7 7 6 5 6 7 8 8 7 8 8 8 6 7 8 8 4 6 8 9 9 7 9 11 11 14 16 17 21 18 11 16 24 20 19 18 17
10 9 9 9 9 9 8 8 9 10 11 10 9 10 9 8 8 8 10 10 12 13 13 9 10 12 14 16 20 22 26 25 20 18 17 21 20 19
12 14 14 12 13 12 12 12 12 12 12 11 11 12 11 11 11 11 12 13 15 15 15 12 12 13 15 18 18 25 22 21 18 15 14 19 23 24
17 18 17 15 16 16 16 16 17 16 15 14 15 15 14 15 13 14 15 16 17 17 17 15 13 12 9 8 13 16 22 21 20 22 22 24 28 30
22 23 22 20 19 19 18 18 17 16 17 17 17 17 17 17 17 18 18 18 18 18 19 17 16 15 15 14 14 20 18 25 26 29 29 27 28 27
26 27 27 25 23 21 20 19 18 18 18 19 19 17 17 17 19 20 20 16 16 18 21 20 18 14 17 15 16 22 23 23 20 24 28 26 24 25
27 28 27 26 25 23 21 20 19 19 20 20 21 20 20 20 21 21 20 21 21 22 23 21 18 17 19 18 21 23 25 24 25 26 24 25 25 10
31 30 28 26 24 23 20 18 21 22 22 21 21 21 20 21 21 21 21 21 20 18 18 19 19 18 19 19 22 23 25 26 23 24 31 26 25 27

GFSNE_925_spd_084.txt.gz
Wind_Speed
12 11 11 10 12 13 12 10 5 3 3 6 5 5 3 1 2 3 0 4 4 2 4 3 6 8 6 4 9 12 17 7 4 16 16 28 28 24
11 9 8 10 11 9 8 8 7 6 3 4 4 6 4 1 3 3 2 1 1 0 2 4 5 7 8 8 12 12 15 14 11 9 15 27 25 21
10 8 10 11 11 10 7 7 6 4 2 2 5 7 4 2 2 2 2 3 3 3 1 1 3 5 6 9 8 10 11 14 17 18 7 16 15 18
9 9 8 9 8 8 8 8 8 8 7 6 6 5 2 1 2 1 2 3 3 5 4 5 3 5 5 5 7 6 6 8 10 13 20 20 18 17
8 8 9 8 9 9 7 5 5 6 8 6 6 5 3 2 5 4 3 3 0 1 1 2 4 6 6 5 5 5 5 3 4 7 6 7 7 7
5 6 7 6 6 6 6 6 7 7 8 8 7 6 5 6 5 6 4 2 2 1 0 1 2 2 4 4 5 4 4 3 3 1 1 2 3 4
6 4 4 3 2 4 5 5 6 7 9 9 6 4 5 6 5 4 3 3 1 2 2 1 1 1 2 5 6 6 3 1 1 0 1 1 1 2
7 7 5 4 6 4 4 3 3 5 8 8 7 7 6 5 5 3 3 2 2 1 4 2 2 3 3 4 7 8 4 1 3 3 4 4 3 4
9 8 7 6 5 5 4 7 8 4 4 7 9 7 7 6 5 3 3 3 2 3 3 2 1 1 3 2 6 7 8 6 3 2 3 4 5 6
8 7 6 4 4 4 3 4 4 4 4 5 4 5 4 4 3 3 2 1 1 1 3 0 2 1 4 2 4 6 7 6 5 5 3 2 1 3
8 7 7 5 4 3 4 4 4 5 5 4 3 3 2 2 3 4 4 2 2 2 2 2 2 6 0 3 2 1 2 5 5 5 4 3 1 3
9 8 7 6 6 4 4 4 5 5 4 4 4 4 3 3 2 3 4 3 2 1 0 3 2 5 0 4 2 3 1 1 3 3 3 3 3 6
11 11 9 7 6 6 5 6 5 6 5 4 4 5 4 4 3 1 1 2 4 3 1 3 2 2 2 4 4 6 5 5 9 7 7 7 6 6
11 10 9 8 7 6 6 5 5 6 6 6 5 6 6 5 4 3 3 4 5 5 7 6 3 2 4 5 5 4 7 11 4 3 4 2 5 4
11 10 9 10 9 8 8 7 8 9 8 8 8 7 6 4 6 7 7 7 6 3 4 6 7 7 8 7 8 10 11 5 12 6 6 16 12 10
10 10 10 11 11 10 10 11 12 11 10 10 9 7 8 9 8 7 7 6 8 8 4 5 8 10 13 14 14 21 17 10 6 13 16 14 10 10
15 13 14 15 15 15 14 14 14 13 13 11 10 11 11 10 10 10 9 9 11 8 9 6 8 11 14 16 20 21 20 19 15 14 14 17 15 12
18 20 20 20 19 19 18 17 16 15 15 14 14 13 14 12 11 12 13 14 15 14 13 11 9 9 10 12 17 22 18 14 13 12 12 17 25 22
22 22 24 23 23 22 20 19 20 17 15 16 15 15 14 13 13 13 14 15 17 16 15 13 11 10 4 4 8 13 17 12 12 16 18 21 28 30
25 25 27 26 24 23 22 21 20 18 18 17 17 16 17 15 16 17 17 18 18 18 16 14 14 14 16 8 6 10 11 18 21 23 25 24 25 27
28 29 29 29 27 25 24 22 21 21 20 19 19 18 16 17 19 19 18 16 15 15 17 17 13 11 13 15 14 15 16 14 15 20 22 21 19 17
29 29 30 30 28 25 24 23 23 22 22 22 20 17 17 19 20 20 18 18 18 19 21 19 14 12 14 17 18 20 20 21 18 17 19 21 18 7
30 30 30 28 27 29 29 28 27 25 24 25 24 22 21 20 19 21 20 19 18 18 18 19 15 11 16 18 20 21 20 23 23 23 25 19 21 25

GFSNE_925_spd_087.txt.gz
Wind_Speed
10 11 12 11 10 11 12 12 7 5 3 7 6 10 7 5 3 1 3 2 2 4 3 3 4 7 8 7 12 16 12 11 10 5 17 15 23 24
10 11 10 9 9 10 11 10 11 8 2 4 6 9 9 6 3 2 2 3 1 1 1 1 4 5 7 10 11 16 13 12 14 14 12 14 19 21
10 10 9 9 10 11 11 9 8 5 1 2 4 9 10 7 3 4 2 1 2 1 1 2 1 3 6 8 10 9 11 13 17 22 6 7 15 16
9 10 11 11 11 10 10 11 10 8 5 6 8 9 6 6 4 4 3 3 2 4 4 4 3 4 6 6 7 7 8 9 11 18 25 28 22 19
8 9 9 9 11 11 11 11 10 10 9 8 7 7 3 4 4 6 6 5 2 0 1 2 2 6 7 6 5 5 5 5 7 9 11 15 17 19
5 5 7 9 9 8 7 7 7 7 6 7 6 6 4 4 6 7 6 4 3 2 3 3 2 1 2 5 6 5 3 4 6 8 6 8 9 9
8 6 6 6 5 6 6 4 5 5 7 9 7 5 5 6 8 5 6 5 2 1 2 2 3 2 2 4 7 7 3 1 1 2 4 4 4 5
7 5 4 4 2 1 1 3 5 6 7 7 7 5 7 8 7 6 5 2 2 2 2 1 1 1 3 4 9 9 8 5 1 1 1 0 1 2
8 7 6 5 5 4 2 5 6 2 6 7 8 7 8 8 7 6 4 4 2 1 2 3 1 1 2 2 7 7 8 8 7 3 1 1 1 2
9 8 7 6 5 5 4 4 2 4 3 3 3 5 4 6 5 4 4 3 2 1 1 2 2 1 2 3 5 5 7 7 8 6 5 4 4 3
9 9 8 7 5 5 5 5 3 5 5 5 4 4 4 4 3 4 4 3 2 3 1 1 1 3 1 4 2 1 3 4 6 5 5 4 2 1
11 9 8 9 7 6 5 5 7 6 5 5 5 5 5 5 3 2 4 4 3 1 2 1 1 2 1 4 3 2 3 3 3 4 3 3 3 4
11 11 10 9 8 6 6 6 5 6 5 5 6 5 5 4 3 3 2 2 4 3 3 2 1 1 1 2 4 6 7 7 7 6 6 4 5 4
13 11 11 10 9 8 8 6 6 7 7 8 7 6 6 6 5 4 3 2 3 3 5 5 3 2 2 4 3 3 5 10 8 4 4 3 6 8
12 11 10 11 11 9 9 7 8 10 8 9 9 8 8 6 8 8 6 5 4 3 4 4 6 6 6 5 5 8 7 4 12 9 8 9 13 10
12 10 10 11 13 11 10 9 11 12 11 11 11 9 9 11 11 9 8 7 7 6 6 5 6 8 10 13 13 17 14 10 6 9 15 16 11 10
16 13 13 14 15 14 13 12 12 13 13 13 13 13 13 12 13 12 10 9 8 5 5 5 7 10 13 14 18 20 18 17 14 12 13 17 15 11
18 20 19 19 19 18 17 17 16 17 17 16 15 14 15 14 15 14 13 12 13 12 11 10 10 11 10 12 17 21 18 15 7 8 9 15 22 17
23 24 24 23 24 23 22 21 21 19 17 18 17 18 17 16 14 16 16 14 14 14 14 13 12 11 2 2 7 11 15 12 10 10 13 18 26 27
26 23 26 26 25 24 23 22 21 19 19 19 19 19 18 19 18 19 18 16 16 15 15 14 16 16 16 7 5 8 9 12 16 21 21 20 23 27
27 28 28 26 25 24 23 23 22 21 21 21 22 21 20 20 20 19 18 15 14 15 17 18 15 11 12 13 12 14 17 13 14 18 20 19 18 16
28 29 29 29 28 27 25 24 24 22 22 23 23 24 23 21 20 20 20 20 19 20 20 18 14 13 15 18 19 17 18 16 16 17 18 19 16 6
30 31 30 29 28 27 26 25 27 29 28 25 25 25 25 26 22 21 20 19 18 17 17 16 15 14 18 20 19 20 20 19 20 22 24 17 19 25

GFSNE_925_spd_090.txt.gz
Wind_Speed
9 8 8 9 8 7 8 9 7 3 3 7 7 12 10 8 7 4 4 3 1 2 3 2 3 5 6 5 8 15 11 12 12 9 10 19 20 21
7 7 8 7 6 7 8 9 10 9 4 4 7 8 11 10 7 4 3 3 0 1 3 1 2 3 6 8 11 14 14 12 14 13 6 16 16 17
8 7 7 5 6 7 9 9 8 7 3 3 6 9 12 9 6 3 3 2 2 1 1 2 3 3 6 7 9 10 14 9 16 13 11 7 9 11
7 6 6 8 8 8 9 8 9 8 5 5 6 10 9 10 8 6 4 4 4 2 2 3 5 4 5 7 6 6 8 6 11 18 29 21 12 14
5 4 5 8 9 10 10 9 9 9 9 6 8 10 7 10 8 7 6 6 4 3 2 2 1 4 5 6 6 6 6 7 7 10 15 23 25 22
4 3 5 7 9 10 10 9 8 8 6 7 8 7 6 8 9 7 7 5 5 4 3 3 3 3 4 6 6 5 3 5 8 6 8 10 12 17
6 5 4 6 6 6 6 6 7 7 8 10 8 6 7 6 8 7 8 6 5 3 2 2 3 3 2 4 8 6 3 3 4 6 6 6 7 8
5 4 3 2 0 2 2 2 4 6 7 7 7 6 7 6 6 7 6 4 2 4 1 2 2 1 2 4 9 10 10 6 5 4 4 4 5 6
6 6 5 4 4 3 1 2 1 2 6 7 9 8 7 8 8 7 6 4 3 2 1 3 2 2 1 4 7 7 8 9 9 8 6 4 4 4
7 7 6 6 6 6 5 4 2 0 0 3 6 6 6 7 7 4 5 4 3 2 1 1 2 2 1 5 5 5 6 8 9 9 8 8 7 7
8 8 7 8 6 6 5 4 2 2 3 4 4 4 5 5 4 5 6 5 2 2 1 1 1 1 2 4 3 4 5 5 6 6 6 5 3 3
9 9 8 8 6 6 4 5 5 5 5 5 5 5 5 5 4 4 6 7 4 2 3 1 2 1 1 4 4 4 4 1 1 1 2 1 1 1
10 10 9 9 7 7 6 5 5 6 7 7 6 5 5 4 3 3 4 4 5 3 4 2 2 2 1 2 4 7 7 6 5 4 2 4 4 3
12 11 10 10 10 9 8 6 6 8 8 7 6 6 6 5 5 5 3 2 3 3 4 4 2 3 1 1 3 3 4 6 6 6 5 5 3 5
11 10 10 11 11 10 9 8 7 10 8 9 8 7 7 6 8 8 6 4 4 4 5 5 4 5 5 4 2 5 5 2 9 8 7 9 9 10
13 10 11 10 11 13 11 10 11 13 11 10 9 7 8 9 10 9 7 6 6 7 7 5 5 6 6 8 9 13 10 7 4 6 13 15 14 12
15 12 12 13 13 15 15 14 14 14 15 13 11 10 10 9 9 10 10 8 8 3 4 5 6 8 10 11 13 15 16 17 15 15 16 16 13 11
17 19 18 17 17 19 19 17 15 15 16 16 15 13 13 13 12 12 13 12 12 13 12 9 8 7 8 9 14 19 17 17 12 9 11 15 17 12
21 20 23 23 22 22 22 20 20 18 16 17 17 16 16 15 14 15 16 15 15 15 15 12 10 9 2 2 6 10 13 11 9 11 10 14 25 25
24 21 24 25 25 23 23 23 21 18 18 18 19 19 19 18 18 19 18 18 17 16 15 14 14 15 12 5 3 5 9 12 13 17 20 19 23 27
23 25 25 25 25 22 21 21 19 18 18 19 20 21 21 22 23 22 20 17 16 17 18 20 18 12 12 12 8 11 16 14 15 17 18 16 17 16
27 27 27 27 26 25 23 22 21 20 20 20 21 22 23 24 25 23 22 19 20 22 23 18 12 11 13 15 17 14 16 19 15 15 18 19 15 6
28 29 28 27 27 26 25 25 24 23 21 22 23 24 25 25 25 25 25 21 22 21 20 18 15 14 17 17 17 20 20 19 17 19 23 19 20 26

GFSNE_925_spd_093.txt.gz
Wind_Speed
6 6 6 7 8 8 8 7 5 4 5 5 6 12 12 10 9 8 7 4 1 0 1 1 2 3 4 4 3 6 6 9 14 13 11 15 19 17
6 4 6 7 6 7 8 9 10 8 5 3 8 9 11 9 7 7 6 4 2 1 1 2 2 2 4 5 7 7 11 9 13 12 12 14 19 20
3 5 6 6 5 6 7 8 9 9 6 6 7 9 10 10 9 6 2 2 3 2 1 0 2 3 5 4 7 9 7 8 13 9 8 7 14 15
4 5 6 7 5 7 6 8 11 10 6 4 7 7 9 11 10 6 3 3 4 3 3 3 5 4 5 7 5 6 7 7 8 16 14 11 7 9
3 4 5 6 6 8 9 11 12 11 10 8 7 8 9 12 11 8 6 5 5 4 2 1 3 2 6 7 6 5 5 7 5 9 19 23 25 19
2 1 2 3 6 9 10 11 10 10 9 8 9 8 8 9 10 8 7 6 5 4 4 4 4 3 4 6 7 5 3 4 6 4 8 15 21 24
4 4 4 5 6 7 9 9 8 8 7 8 6 5 6 5 8 7 5 6 4 4 4 4 3 2 1 4 10 9 5 3 3 3 4 6 8 10
6 5 4 3 3 3 2 3 6 7 7 6 7 6 7 6 6 6 7 4 1 4 4 4 2 0 2 4 6 7 8 5 4 3 4 6 6 6
7 7 7 8 7 6 4 3 1 2 6 7 7 8 7 9 8 8 7 6 4 4 2 3 3 2 3 6 5 6 7 7 8 7 4 4 5 5
10 9 9 8 7 7 6 4 2 1 1 4 7 7 7 7 8 7 7 6 5 3 3 2 3 3 4 5 4 5 5 8 8 8 7 6 7 6
10 9 9 8 7 7 5 4 3 3 3 3 4 5 5 6 6 7 8 7 3 3 3 3 4 4 5 6 4 6 3 5 5 5 5 4 6 6
10 9 9 9 8 8 6 6 6 6 6 7 6 6 6 5 6 5 6 6 4 2 6 4 4 3 2 5 7 7 6 2 1 0 2 2 2 4
12 12 11 10 10 9 8 7 7 7 8 6 5 5 6 5 3 4 5 4 5 3 5 4 3 3 3 2 5 8 8 6 5 3 3 4 3 2
12 11 11 11 11 11 10 7 7 8 9 7 7 6 7 7 6 5 4 4 4 3 5 4 2 3 2 2 2 3 6 7 6 6 6 6 4 2
12 11 11 12 12 12 10 10 9 11 9 10 9 9 8 7 8 7 5 4 3 3 4 5 5 5 5 3 2 2 3 4 6 6 6 8 8 7
13 11 11 12 13 13 13 12 13 13 12 11 10 9 8 9 10 10 8 6 4 5 6 5 5 4 4 6 7 8 8 4 2 3 8 12 10 11
18 14 13 14 14 15 16 16 15 13 14 13 11 11 11 11 12 12 11 9 7 5 5 6 6 7 9 10 10 12 12 12 12 12 13 15 12 11
19 20 18 17 18 18 19 18 17 16 16 15 15 14 13 14 13 13 13 13 11 10 9 8 7 6 7 9 14 14 12 13 11 10 10 11 14 9
21 21 20 23 22 20 20 21 20 19 16 16 18 18 17 16 15 16 15 14 13 12 11 10 10 8 4 3 5 10 11 9 8 9 11 13 15 18
22 20 20 23 24 24 23 23 22 20 19 19 21 20 20 19 19 18 17 17 15 11 11 12 13 14 9 4 3 5 9 10 11 11 13 17 21 23
23 24 24 25 25 24 23 21 22 20 20 20 21 22 21 22 23 23 21 19 17 14 12 13 16 12 14 14 8 9 13 13 14 14 14 13 12 11
26 27 28 26 26 25 22 21 21 19 19 20 21 22 22 24 25 25 23 21 19 17 16 14 12 12 15 14 14 11 10 10 12 13 17 18 11 5
28 29 28 29 28 27 23 23 23 23 23 23 23 23 23 25 25 25 25 24 22 21 16 12 14 15 16 15 15 14 14 14 11 12 16 17 23 27

GFSNE_925_spd_096.txt.gz
Wind_Speed
12 12 9 8 7 8 8 8 9 4 5 5 4 6 9 9 8 7 6 5 3 2 3 3 5 7 7 9 8 6 8 10 14 17 17 18 19 22
11 11 9 8 7 7 7 8 10 10 4 3 3 4 7 8 8 6 6 5 3 1 3 4 4 6 9 9 6 8 9 12 15 19 18 17 18 18
12 11 10 8 7 7 8 8 10 12 13 7 8 9 7 7 7 6 5 5 4 2 0 0 3 5 8 8 7 9 11 13 13 17 13 7 9 15
10 9 9 8 6 6 6 8 9 9 6 7 7 7 7 8 8 8 6 5 3 3 1 1 1 3 5 8 8 8 9 12 12 15 13 9 5 12
8 7 8 8 9 8 7 8 8 8 8 8 5 7 8 9 10 8 7 6 6 6 5 4 2 3 5 8 10 7 7 9 10 10 18 18 8 8
7 7 6 6 8 8 8 10 10 8 7 8 6 7 7 8 10 9 7 7 8 7 7 7 6 6 6 7 9 7 4 5 9 8 9 18 21 21
7 6 7 8 8 9 6 6 7 7 7 7 6 5 6 6 8 8 8 6 5 6 5 6 3 2 3 4 6 9 7 5 5 6 5 8 12 19
8 7 7 7 4 4 5 7 7 7 7 5 7 6 8 8 8 9 7 7 5 8 5 4 3 0 1 1 6 7 8 8 5 3 5 4 6 6
10 10 9 8 8 5 5 3 3 4 6 6 6 9 8 10 8 8 9 7 4 4 4 4 2 3 3 3 4 6 7 7 7 6 2 2 4 4
13 12 11 10 10 8 5 4 3 2 3 5 6 5 5 7 7 7 7 5 3 4 5 4 3 3 3 3 1 4 4 5 6 7 6 2 3 4
10 11 12 11 10 8 7 6 4 3 1 2 4 5 7 8 7 6 6 6 4 4 5 3 3 3 3 4 4 4 4 2 3 4 4 4 5 5
9 12 12 12 10 10 9 8 8 7 6 5 4 5 5 6 7 5 5 6 3 3 5 4 3 3 1 3 5 5 4 2 2 2 2 2 3 2
11 13 14 13 12 12 11 8 8 8 8 6 5 4 5 4 4 5 6 6 5 2 4 4 4 2 2 1 3 7 7 5 5 3 4 4 2 3
12 12 12 14 14 13 12 9 8 8 8 8 7 6 6 5 5 5 5 5 4 4 5 5 2 4 2 1 2 3 5 7 8 7 8 8 5 4
13 12 11 12 13 13 13 12 9 10 9 9 8 7 7 7 7 7 6 5 3 3 4 4 4 4 4 3 2 2 2 4 6 7 7 8 8 8
13 11 12 13 13 12 13 13 13 12 10 9 8 6 8 9 9 9 7 6 4 4 6 6 5 5 3 5 5 6 5 3 4 5 6 8 10 10
18 15 14 14 13 14 14 14 14 13 12 10 9 8 8 9 9 10 9 7 6 4 5 7 7 7 8 8 7 8 8 8 9 10 11 10 11 12
21 19 18 16 16 16 16 16 15 17 17 14 12 11 12 12 11 11 10 9 8 8 7 6 5 4 6 9 13 10 8 8 7 8 9 7 8 9
22 21 19 18 18 17 16 17 18 21 19 18 18 17 17 15 14 12 11 11 11 10 9 9 8 8 6 4 2 8 9 6 6 6 7 9 8 9
24 21 20 19 19 19 19 20 19 19 20 21 21 21 20 19 15 15 14 13 12 11 11 11 13 13 10 5 3 5 8 11 8 8 9 11 15 17
23 22 20 19 19 20 21 22 22 22 22 22 23 23 23 22 18 18 16 16 15 13 13 15 17 14 12 12 8 9 10 15 16 13 9 10 12 11
24 22 22 22 22 21 21 22 21 21 22 23 24 25 24 24 23 21 19 17 19 17 15 11 13 12 12 11 13 12 9 8 11 14 18 17 10 5
27 27 25 25 27 26 23 22 22 23 24 23 23 24 24 24 23 22 19 19 17 16 16 14 12 11 13 13 13 12 11 12 12 13 15 16 20 25

GFSNE_925_spd_099.txt.gz
Wind_Speed
15 13 10 9 11 12 11 10 8 2 1 2 3 3 4 6 7 6 5 4 2 2 2 4 5 6 7 9 10 11 11 13 15 15 18 20 19 20
12 11 10 10 10 9 10 10 12 10 3 1 1 1 6 6 7 6 5 5 5 3 3 3 4 7 9 10 9 8 11 14 17 17 21 20 20 19
12 11 10 10 10 9 9 10 10 9 6 9 8 8 7 9 6 6 5 5 6 4 2 2 4 5 8 9 9 8 9 12 16 17 19 15 8 7
14 13 13 12 13 11 9 9 9 9 7 6 5 8 7 8 8 7 6 6 7 5 3 2 4 5 6 9 11 9 8 11 14 13 20 9 6 6
12 11 10 13 12 11 9 8 9 8 8 7 4 7 8 8 9 9 8 8 8 7 6 5 5 7 8 9 11 10 7 8 13 10 16 20 10 3
13 12 12 12 11 11 10 10 9 9 8 9 9 8 8 9 10 10 9 9 9 8 6 7 7 7 7 7 8 10 8 8 10 9 10 18 23 23
11 10 11 11 13 11 8 9 9 8 8 9 8 7 8 8 9 8 9 7 7 6 6 6 3 3 4 3 6 9 10 9 9 9 7 9 17 23
13 12 11 12 11 10 9 11 9 8 8 8 10 8 11 9 10 9 8 5 4 7 6 5 3 3 2 3 5 8 8 9 10 9 8 5 8 12
13 13 11 10 11 8 8 7 7 10 12 10 8 10 10 12 9 10 9 7 3 4 5 3 3 3 1 1 3 6 8 9 10 10 9 6 6 6
14 14 13 12 12 12 9 8 6 5 5 7 9 5 6 4 9 8 9 8 6 4 6 2 3 3 3 3 1 1 2 5 8 9 9 6 7 7
13 13 14 15 14 14 11 10 8 7 5 7 10 11 10 10 10 10 11 10 4 4 5 3 3 5 4 4 4 2 3 3 4 5 7 7 8 9
14 14 17 15 14 14 13 11 11 11 9 5 5 6 6 8 10 8 9 11 4 3 6 6 4 4 1 3 5 4 4 3 2 4 3 4 5 7
17 15 17 17 15 15 13 12 11 10 11 9 7 7 8 6 6 8 9 11 8 3 6 8 7 4 3 2 2 5 5 5 3 2 2 2 1 2
18 16 15 17 18 16 16 12 12 11 11 11 10 10 10 9 8 8 8 8 8 6 7 8 4 6 4 3 2 2 3 5 6 6 6 5 3 2
16 16 16 16 17 16 16 12 12 13 13 13 13 13 13 12 10 9 7 7 6 6 7 7 5 6 6 4 2 1 2 4 4 5 5 6 6 6
17 17 16 14 17 17 15 17 16 15 15 15 13 13 14 13 12 10 9 8 6 5 6 6 6 6 5 5 5 5 6 2 3 3 5 5 5 7
21 17 16 17 17 18 17 18 18 17 17 15 15 16 14 13 12 11 10 10 7 7 6 7 7 7 7 7 6 7 7 8 8 8 9 10 9 10
23 20 19 20 19 19 18 19 20 19 20 19 18 16 16 15 14 13 12 13 12 10 9 8 7 4 3 5 11 12 8 8 8 10 9 8 9 7
22 20 20 21 21 21 21 21 20 24 22 22 20 19 17 16 14 16 15 15 13 11 11 12 12 10 4 2 2 6 10 7 8 9 9 10 9 8
22 20 20 21 20 21 21 23 22 22 24 23 22 20 20 19 19 17 17 17 15 13 13 15 16 16 12 5 3 5 7 11 11 9 8 10 12 13
22 22 23 24 23 21 22 25 25 25 24 25 24 23 23 22 20 20 19 17 15 16 16 18 20 13 14 14 6 8 10 9 14 15 10 8 10 8
22 24 24 24 25 24 23 25 25 23 23 24 24 25 24 24 22 21 21 19 20 19 20 15 13 14 16 15 13 10 10 10 11 10 14 16 8 4
25 26 25 26 26 26 26 26 25 24 25 25 25 25 24 25 24 23 22 21 19 20 18 17 16 16 14 13 13 12 11 12 14 14 15 14 15 20

GFSNE_925_spd_102.txt.gz
Wind_Speed
19 20 19 16 15 14 13 10 6 2 2 3 5 8 7 5 4 5 5 5 4 3 2 4 4 6 8 9 10 8 9 10 10 12 13 18 19 20
19 17 17 15 14 12 11 11 10 8 2 1 2 5 5 4 6 6 6 5 5 4 3 2 3 5 8 10 9 10 10 11 13 15 15 20 18 19
19 18 16 14 11 9 10 10 12 13 8 9 5 8 7 7 6 7 7 5 6 4 3 1 3 5 6 9 11 10 11 12 14 15 18 19 17 11
20 17 15 14 13 12 13 14 15 15 14 9 10 10 8 7 8 8 6 6 6 6 3 3 4 5 6 10 11 11 11 11 13 13 16 14 11 3
19 17 15 15 14 14 13 12 13 13 12 10 8 9 8 9 10 9 9 8 8 7 6 4 6 6 7 9 9 11 10 9 12 12 13 20 14 1
16 15 15 15 15 14 16 15 14 14 14 14 13 10 10 10 10 11 11 10 8 7 6 7 8 7 5 5 7 10 10 9 10 11 10 16 25 19
18 16 16 17 16 15 17 16 14 15 15 15 14 9 11 9 11 9 10 7 7 6 6 6 5 5 3 4 6 6 9 9 11 11 8 11 19 25
19 17 18 17 16 16 16 15 15 14 16 15 16 13 15 12 11 10 8 5 3 6 6 8 7 5 2 1 4 7 6 8 10 11 12 9 12 18
18 18 16 15 16 16 16 16 16 17 17 17 16 16 13 15 13 11 12 7 4 6 7 5 5 5 2 2 2 5 6 8 8 9 6 10 8 11
19 18 18 17 16 16 15 12 11 12 15 16 17 14 12 9 13 10 11 9 7 7 8 6 6 4 3 3 2 1 2 5 7 9 8 7 9 9
21 21 21 20 18 19 17 15 13 12 10 12 14 15 11 10 11 12 14 14 5 6 9 6 5 5 4 6 4 3 1 2 6 9 9 9 10 10
21 21 21 21 20 20 22 20 17 16 13 11 10 12 14 12 12 12 13 18 6 4 9 9 9 7 3 7 7 5 3 1 2 5 7 7 8 8
25 26 25 24 22 21 21 21 17 16 15 11 10 12 10 11 12 12 12 16 13 4 9 12 9 9 4 3 3 5 4 3 1 0 2 4 5 5
29 28 24 23 23 21 21 19 15 15 18 16 15 14 13 12 12 11 11 12 13 8 10 14 6 10 8 5 3 2 1 3 4 4 3 2 1 3
25 26 22 21 22 21 21 20 17 20 20 20 19 17 15 12 11 10 10 10 9 9 10 11 7 10 10 6 4 4 2 0 1 3 3 3 3 3
24 19 20 20 21 24 22 20 21 22 23 22 20 17 16 16 15 14 13 12 11 11 11 10 9 8 9 9 7 5 4 2 1 0 3 4 4 3
24 20 19 20 22 24 24 26 24 21 20 20 21 20 19 18 18 17 15 16 10 11 12 11 10 9 8 7 7 8 7 7 5 5 6 7 8 7
23 23 22 20 21 23 25 25 28 26 24 22 21 22 22 21 20 19 18 19 17 12 12 12 12 9 6 8 12 10 7 7 7 7 6 7 7 4
27 23 24 24 24 23 24 24 25 28 26 26 24 23 21 20 18 22 21 19 17 15 15 13 13 11 3 2 2 6 11 7 8 9 9 9 6 3
23 25 24 26 24 24 26 27 28 27 28 26 26 26 24 23 23 22 22 21 19 18 17 17 18 18 12 7 4 6 8 8 10 10 9 7 9 10
23 22 27 25 24 24 23 27 27 28 29 29 28 27 26 25 24 23 23 20 18 19 19 22 22 13 13 12 6 8 10 8 10 13 10 10 10 8
23 23 25 26 26 26 26 26 26 26 27 26 28 28 28 27 26 24 25 23 20 21 21 18 14 16 17 19 17 10 8 8 8 9 11 14 8 3
24 25 26 28 27 26 25 25 26 26 27 27 27 27 27 28 27 25 24 23 22 21 20 17 16 18 20 19 15 15 11 11 10 12 13 13 13 15

GFSNE_925_spd_105.txt.gz
Wind_Speed
17 17 20 21 19 17 16 14 9 4 5 9 9 12 10 8 6 6 7 7 6 7 8 7 7 8 9 10 8 9 10 10 11 13 15 16 19 19
22 20 20 21 19 16 16 14 14 13 3 9 8 9 9 7 6 6 8 8 6 7 6 7 7 5 5 7 10 11 11 10 12 14 16 19 22 21
23 23 22 21 20 18 16 16 15 15 8 7 8 9 10 9 9 7 8 10 9 8 7 6 6 5 5 8 10 12 12 11 14 15 17 21 24 20
25 24 24 21 20 19 18 17 16 15 15 10 12 11 11 11 10 9 9 10 10 10 9 7 7 6 7 8 9 11 12 10 12 15 16 21 15 14
24 25 25 23 22 21 20 18 18 16 15 14 10 10 12 11 12 12 11 11 12 11 9 8 8 7 6 7 9 11 11 10 11 14 13 18 19 11
21 25 24 24 24 22 21 19 17 16 16 13 12 12 13 10 13 13 13 13 12 11 11 10 8 8 5 4 7 7 9 10 12 14 11 15 18 15
21 22 21 21 20 20 20 20 20 16 14 11 13 10 12 10 13 11 13 11 12 12 12 11 8 6 5 5 4 5 8 9 10 13 11 11 16 18
23 22 20 20 19 20 18 20 18 19 18 18 14 13 17 16 14 12 11 7 5 13 11 10 8 6 4 3 2 5 7 8 9 10 13 8 11 17
24 23 22 21 20 20 18 18 18 17 17 17 18 21 18 17 15 15 15 12 8 8 10 7 7 6 4 4 1 3 5 6 8 10 8 8 7 11
25 25 25 23 22 21 21 20 19 19 19 19 19 19 17 16 17 18 18 13 8 9 10 7 8 8 7 6 3 1 2 4 8 9 7 8 7 5
25 25 25 25 23 22 22 20 17 16 15 16 17 16 16 14 15 17 18 17 6 7 12 6 7 8 8 8 6 2 1 3 5 6 6 5 6 6
28 27 26 26 24 23 25 23 22 20 18 15 14 14 16 15 15 17 18 20 9 5 13 11 11 9 5 7 8 6 4 2 1 3 5 5 5 5
28 29 29 27 25 25 25 26 26 19 18 16 15 15 17 20 18 17 18 18 18 6 9 17 13 12 4 4 5 7 5 4 3 2 1 3 4 4
28 27 28 26 25 25 24 25 23 20 21 19 17 19 19 18 17 15 14 15 15 12 9 21 7 11 8 5 2 5 5 6 6 5 4 2 1 3
32 30 28 23 25 24 25 24 22 23 24 26 24 24 21 17 16 14 13 11 11 11 13 16 12 13 8 4 4 5 4 4 4 4 3 3 3 4
31 30 27 25 26 27 24 24 25 27 28 28 27 23 19 19 17 15 14 14 14 14 14 13 10 9 9 8 7 5 6 2 3 2 3 3 4 4
27 28 23 22 23 24 27 26 27 28 26 28 25 24 23 22 20 17 15 18 12 14 15 13 10 9 9 9 9 9 8 7 4 3 3 5 6 6
23 21 21 23 23 24 24 27 28 29 29 27 25 26 26 24 22 20 18 19 18 13 14 15 13 9 7 9 12 9 9 9 6 5 5 4 2 3
20 21 22 24 26 25 25 26 24 28 29 28 27 27 26 24 22 21 20 20 18 15 13 14 16 13 4 3 3 14 15 9 9 8 7 6 4 1
24 21 22 23 25 25 26 25 24 26 29 30 29 28 26 25 23 23 22 20 19 18 17 17 18 20 11 5 4 5 11 11 9 9 9 8 8 8
20 20 23 24 25 27 28 28 28 27 27 28 29 30 27 26 24 23 24 21 19 20 17 22 24 16 15 10 4 6 10 11 10 10 7 10 9 8
22 22 22 27 28 28 27 27 27 25 26 29 28 28 28 28 26 24 24 22 20 20 19 18 16 16 16 18 13 9 7 9 9 10 10 11 6 4
23 24 24 26 28 26 25 27 28 28 29 29 27 27 27 27 28 27 25 24 23 20 19 17 15 17 20 19 16 16 14 13 10 12 14 11 11 13

GFSNE_925_spd_111.txt.gz
Wind_Speed
22 25 30 32 33 30 24 22 12 4 9 16 11 21 19 17 13 11 9 8 7 9 10 10 10 10 10 14 13 13 14 16 16 16 17 17 18 20
29 30 33 33 29 26 24 27 26 20 5 15 18 14 20 17 15 13 11 8 8 9 10 10 10 9 9 11 12 12 13 16 15 15 17 18 19 22
30 31 31 30 33 29 28 30 29 24 10 10 16 18 20 20 18 17 14 11 11 10 10 10 9 8 9 9 10 11 13 14 15 16 17 18 20 24
26 28 31 31 35 33 33 32 30 28 17 7 16 17 17 21 18 17 15 14 12 13 13 12 10 10 8 8 10 11 10 12 14 14 16 18 18 21
23 25 27 27 29 28 28 30 31 25 21 14 13 15 18 19 19 18 17 17 14 15 14 13 10 10 8 8 8 11 10 11 11 14 15 18 17 19
22 23 25 26 28 27 28 29 26 22 18 16 13 12 12 13 20 20 18 18 17 15 13 14 13 14 10 9 9 10 8 8 10 13 13 17 16 18
23 25 26 25 24 23 24 26 23 25 22 17 13 10 12 10 18 17 18 16 16 16 15 15 15 13 11 9 8 6 5 7 9 11 12 13 15 15
24 25 24 24 25 23 22 20 25 26 24 19 17 14 17 21 22 21 17 11 4 15 17 17 17 15 11 9 6 3 5 6 10 11 11 10 11 13
24 24 26 24 23 22 23 23 25 25 29 28 21 25 18 26 26 22 20 17 9 6 18 11 15 13 9 8 6 5 4 5 7 9 10 9 8 10
25 25 26 26 25 22 22 23 25 24 27 28 30 27 25 19 24 26 24 19 12 9 16 8 10 9 10 9 9 7 4 2 5 8 9 6 6 6
25 26 26 26 25 24 23 24 25 24 24 25 25 20 19 17 19 22 20 16 6 10 18 7 6 7 9 11 11 9 5 2 3 5 8 6 5 5
25 27 25 25 24 24 24 26 26 29 25 22 22 18 19 17 19 21 22 18 9 6 16 13 10 8 3 8 13 12 8 5 2 3 4 6 6 4
23 23 27 26 24 24 24 28 30 28 25 24 22 20 20 19 21 21 22 26 22 9 7 20 12 13 5 4 8 13 9 6 4 2 0 4 5 5
24 24 25 28 28 23 24 29 28 23 20 22 23 22 20 21 22 21 20 21 21 14 13 17 6 14 10 6 5 11 11 8 6 5 3 1 4 3
26 26 29 27 30 27 22 24 27 24 22 21 22 23 24 21 20 20 18 17 16 14 14 17 17 12 11 5 6 7 8 9 8 6 4 3 3 2
28 28 28 28 26 27 24 18 27 29 28 25 23 23 20 18 19 20 17 17 16 14 16 16 17 13 14 9 5 12 8 4 10 6 5 5 4 4
32 29 25 22 20 23 23 23 24 27 25 25 22 23 22 21 20 19 17 18 10 14 15 14 14 14 11 11 9 9 12 9 11 9 6 6 5 4
27 23 20 19 18 18 19 21 24 26 26 25 23 24 24 25 23 21 17 15 16 14 18 17 17 14 8 8 11 11 13 12 11 9 7 6 5 4
19 20 21 21 18 19 21 19 20 26 28 26 25 27 27 26 22 23 20 18 16 15 17 18 20 14 3 3 8 14 12 13 13 10 8 6 6 6
18 20 22 22 19 17 20 21 24 24 25 25 25 26 28 27 22 21 21 18 19 17 15 20 21 21 9 5 6 10 18 13 15 11 9 7 5 5
21 22 22 24 23 22 22 23 24 24 26 26 24 25 26 26 21 22 22 21 19 20 17 19 21 17 14 7 4 5 11 16 11 12 10 6 5 4
22 24 25 25 24 23 24 24 23 22 22 24 24 26 28 28 24 23 23 21 19 20 17 16 15 16 19 12 6 8 9 13 13 10 8 6 4 5
24 25 27 26 26 24 24 23 22 21 23 24 25 27 29 27 27 25 25 24 21 19 19 17 18 19 17 18 13 11 9 12 13 12 10 8 7 7

GFSNE_925_spd_114.txt.gz
Wind_Speed
25 25 22 24 28 32 30 28 17 7 7 12 15 22 26 26 25 22 20 18 15 14 16 17 16 14 14 13 11 10 11 11 12 14 13 13 14 15
29 28 27 27 29 30 31 29 26 18 5 16 26 24 25 27 26 24 23 18 16 14 14 14 13 13 12 11 11 10 11 12 13 13 12 12 14 16
27 26 27 27 28 29 29 28 27 26 11 11 15 21 19 26 25 23 20 18 14 12 12 11 11 11 10 9 9 10 11 10 11 10 11 12 14 16
16 19 22 26 29 29 26 28 25 23 19 14 15 15 18 21 24 23 19 17 14 14 12 12 12 11 11 10 9 10 9 9 9 9 11 11 15 17
17 18 20 21 22 25 26 28 28 28 28 19 14 19 20 17 20 19 15 17 17 15 14 14 14 13 13 10 11 10 8 7 8 10 11 9 14 16
16 18 19 19 21 22 24 27 26 25 23 19 14 11 17 18 21 22 17 22 21 17 16 17 16 15 15 11 13 9 8 6 6 8 8 7 12 15
20 20 20 19 20 20 20 22 23 22 20 18 13 12 14 11 24 24 27 28 21 18 18 19 18 18 18 14 13 11 6 6 6 8 7 5 8 14
22 24 24 24 22 21 21 20 23 22 21 17 15 13 18 26 25 25 22 16 4 19 23 23 20 21 18 15 12 9 8 5 4 6 6 7 6 10
23 25 27 27 25 24 23 22 22 25 25 27 20 22 19 30 27 27 28 18 13 14 18 14 20 21 18 15 11 10 8 6 3 5 5 6 4 7
24 25 27 27 26 26 26 24 23 24 27 29 30 28 30 26 27 25 28 24 17 15 16 8 14 17 16 15 14 12 9 5 2 3 6 3 4 5
23 26 27 29 27 24 24 26 25 27 27 26 28 28 28 21 21 21 21 17 6 10 18 11 11 11 13 15 15 13 9 5 2 2 5 5 3 4
22 23 25 25 27 26 26 25 23 30 25 27 24 22 22 18 20 23 25 20 11 5 17 17 13 11 4 12 18 17 12 8 5 1 2 4 4 3
23 24 22 24 27 29 30 28 28 28 26 24 24 23 19 19 22 23 23 28 22 11 11 25 16 15 5 6 11 17 13 9 6 4 2 3 6 7
25 25 25 28 31 31 32 30 29 29 24 21 21 23 24 23 24 23 22 24 21 22 19 23 8 15 11 7 5 15 15 10 8 7 4 2 5 7
25 28 31 30 29 28 28 30 27 26 25 21 20 22 25 26 20 19 17 17 17 16 15 21 17 13 13 8 8 11 11 12 11 9 6 5 4 6
28 30 30 30 27 25 25 26 25 24 27 25 21 20 20 19 19 20 18 16 14 12 16 16 15 13 14 9 7 15 11 7 14 11 9 7 6 6
30 26 25 24 25 23 21 23 23 24 22 23 20 20 21 23 24 22 19 19 9 12 13 12 14 13 10 12 8 14 15 11 14 13 11 10 8 6
25 19 20 21 22 24 22 20 21 21 23 23 21 22 21 21 22 24 21 19 16 13 16 16 17 14 8 8 9 16 15 15 16 12 11 10 9 6
18 18 19 20 22 23 23 20 17 19 22 23 23 22 21 21 21 23 22 20 15 17 18 18 20 16 3 2 8 11 17 16 16 13 11 7 7 7
19 18 20 22 23 23 23 22 21 20 20 22 22 23 22 22 21 21 22 19 17 18 16 19 22 22 10 6 8 13 14 18 19 15 14 11 10 8
18 21 22 22 24 25 23 24 22 21 22 21 22 23 24 24 21 22 23 21 19 16 13 17 25 21 9 12 9 9 16 12 14 15 16 11 8 6
19 23 24 24 25 25 25 23 22 20 19 21 21 22 23 25 22 23 23 21 19 20 15 17 16 19 17 8 8 12 17 17 13 11 10 5 3 8
21 22 25 26 26 26 25 24 20 20 20 21 21 22 23 22 23 24 23 22 21 19 20 18 20 20 17 13 12 15 14 19 16 13 10 7 5 4

GFSNE_925_spd_117.txt.gz
Wind_Speed
15 15 17 23 24 26 28 24 16 8 11 14 16 21 24 28 30 27 26 24 19 18 15 16 20 19 18 19 17 15 14 12 13 13 12 12 13 12
16 16 22 25 27 29 27 27 24 21 9 12 20 24 21 27 30 29 27 21 17 16 15 17 19 19 18 15 15 14 13 13 12 11 12 11 13 13
14 16 19 23 25 26 25 24 25 25 12 18 19 20 23 26 28 29 26 24 21 17 16 18 18 19 16 15 14 13 13 13 12 11 12 12 12 14
9 10 12 14 15 17 20 22 24 24 22 19 17 22 23 27 29 30 29 27 23 20 20 20 18 19 17 16 14 13 12 11 12 11 13 15 11 14
9 11 13 14 16 18 19 19 21 24 26 22 16 20 25 25 27 28 28 23 25 24 22 21 21 21 19 16 15 13 12 11 11 11 13 14 9 13
10 11 13 14 15 16 17 19 21 22 22 21 17 18 21 20 28 26 25 29 29 26 25 26 26 23 21 19 16 14 12 12 10 11 12 11 9 10
14 15 16 17 18 18 18 20 21 21 19 18 16 16 14 13 23 21 23 28 32 32 28 28 27 25 21 20 18 15 13 12 11 11 10 11 9 8
18 19 19 19 19 21 22 21 21 20 21 18 18 16 20 22 19 27 21 12 4 30 30 31 30 29 25 23 20 16 13 13 13 10 9 9 9 8
16 18 21 23 23 23 24 24 24 24 25 26 24 23 23 29 28 25 27 23 15 17 30 17 28 28 26 25 20 17 14 13 11 9 8 8 6 6
16 18 18 20 24 24 26 25 25 24 24 27 29 33 31 29 31 32 31 25 16 18 25 8 18 19 23 23 20 17 14 12 10 8 6 6 6 4
16 17 19 19 20 24 25 26 26 27 30 30 29 32 32 30 29 27 20 16 6 11 27 12 11 10 16 18 21 17 15 11 11 8 4 4 4 2
18 18 18 19 22 25 28 27 25 25 28 31 32 28 30 25 23 22 25 18 7 4 19 16 15 12 4 13 18 19 14 13 12 9 4 2 3 2
19 20 21 23 27 30 30 30 28 29 30 28 30 29 28 24 23 24 24 26 18 7 12 23 14 15 4 5 10 20 21 17 14 10 6 2 3 2
19 22 25 29 31 31 30 29 32 32 26 27 26 26 26 27 23 22 22 24 21 16 12 25 10 18 12 6 5 16 21 18 14 10 7 5 4 5
23 26 28 29 29 27 27 29 30 25 22 22 20 23 26 23 20 17 17 17 19 19 16 23 18 21 17 9 7 11 12 17 15 13 10 8 5 7
26 26 28 27 24 25 26 26 26 24 23 20 20 22 21 16 17 19 17 17 15 12 17 21 19 15 13 8 8 14 14 8 20 15 11 9 8 9
25 26 24 22 22 23 23 25 27 25 22 22 20 19 16 15 17 17 16 18 9 13 14 15 16 12 9 11 7 13 17 10 18 17 14 11 10 10
22 18 19 19 20 21 23 24 25 26 23 22 20 18 17 17 17 17 19 15 11 12 12 17 18 14 7 4 6 15 13 15 17 16 14 12 11 9
14 16 17 19 20 20 23 22 24 25 27 23 20 19 17 16 14 15 14 15 10 12 14 19 18 12 4 3 4 12 14 17 19 15 12 8 9 11
13 15 17 20 20 21 23 24 24 25 23 22 21 19 18 17 15 15 17 15 14 11 12 16 17 16 9 5 6 10 13 19 19 15 13 13 13 13
17 16 19 20 20 22 24 25 25 25 24 22 19 19 18 17 15 15 17 18 17 14 13 13 18 18 14 10 6 7 12 14 16 17 18 13 7 7
15 16 18 20 21 22 24 25 25 24 23 20 20 18 19 18 15 16 17 17 17 18 14 17 17 17 15 7 6 14 12 16 12 12 13 6 5 7
16 18 20 20 20 22 23 24 25 25 23 22 20 19 19 15 15 17 17 17 18 18 20 16 13 17 12 5 11 17 14 16 15 16 12 9 9 9

GFSNE_925_spd_120.txt.gz
Wind_Speed
15 14 16 16 16 18 21 23 16 12 13 16 20 26 28 28 34 32 33 36 33 31 27 23 23 25 25 24 20 21 24 21 19 18 16 15 17 17
15 15 15 16 18 20 21 22 25 23 9 13 16 23 27 27 26 29 33 35 36 33 30 28 27 27 25 23 24 23 21 20 20 18 16 15 16 17
14 16 18 15 15 17 19 21 24 22 13 20 21 24 25 28 29 30 33 37 38 36 34 32 31 29 27 24 21 19 20 19 19 19 17 15 17 17
1 4 6 9 12 13 14 16 19 23 21 18 18 22 25 28 30 31 35 38 39 39 35 33 32 28 25 23 21 20 20 20 19 19 18 16 17 15
5 6 7 8 9 10 11 13 15 17 20 21 20 19 21 25 28 30 33 37 40 41 36 33 31 29 26 23 20 20 18 19 17 18 18 16 16 13
7 7 7 8 10 12 12 14 15 17 18 19 20 19 19 22 24 21 26 33 37 38 36 36 32 29 25 23 22 20 20 19 19 17 18 16 16 13
7 8 8 10 11 12 12 15 18 18 18 19 19 19 12 13 16 24 26 27 32 38 37 36 30 30 30 26 24 21 22 19 18 18 17 16 14 14
9 9 10 11 13 15 16 16 16 19 20 21 20 20 23 21 23 24 23 14 6 31 28 29 35 34 34 32 30 26 23 21 19 17 16 14 12 14
9 10 12 12 15 15 17 18 18 18 19 23 24 23 26 25 25 23 24 20 24 19 30 23 32 31 33 34 31 27 23 20 18 15 14 13 12 12
8 10 11 14 14 18 21 21 21 21 22 23 24 26 28 30 29 29 29 29 22 22 21 7 21 23 24 28 29 26 22 19 18 13 13 12 10 10
9 10 12 12 14 19 22 23 24 25 24 25 28 32 32 30 29 28 23 17 7 12 23 7 10 10 15 19 22 22 20 19 15 9 14 10 9 8
11 12 12 14 20 23 25 25 25 26 27 31 33 31 30 32 29 26 26 18 11 4 17 16 12 8 3 10 16 19 18 17 14 11 14 8 6 6
14 16 17 22 26 27 26 24 23 29 29 27 27 25 27 31 31 26 25 27 17 10 11 24 14 13 5 5 9 17 17 15 13 12 12 7 1 4
14 16 19 24 25 26 24 23 27 27 23 23 22 23 24 25 28 26 20 25 24 23 11 24 8 17 10 6 5 14 16 14 12 10 8 6 3 2
13 18 19 22 22 20 20 23 24 23 24 22 20 23 24 26 24 20 18 18 16 12 12 22 18 21 17 11 7 10 16 13 13 11 9 7 5 3
18 19 20 19 17 19 19 21 20 21 23 22 21 24 27 23 19 14 11 11 9 8 9 15 18 15 13 7 8 15 11 7 17 12 11 8 6 4
21 21 21 21 21 20 20 20 20 20 20 24 23 23 22 20 14 11 10 10 5 5 5 7 10 12 9 8 6 9 11 6 12 16 13 9 7 6
16 16 17 17 18 20 20 21 21 20 20 23 23 23 19 17 15 11 10 9 6 6 6 11 14 12 7 4 6 10 8 10 13 16 14 10 7 6
12 13 16 16 18 20 19 20 22 22 23 21 23 21 21 17 11 8 7 9 7 7 9 12 15 8 3 3 2 12 9 11 16 15 11 5 8 9
11 14 16 17 18 19 20 20 22 22 22 22 22 21 20 17 11 9 8 8 8 7 8 10 12 10 6 4 5 5 6 16 15 13 10 11 13 11
13 15 15 16 18 19 20 20 22 22 23 24 22 21 19 17 13 11 9 10 10 9 10 9 11 14 11 11 5 6 6 13 12 13 16 12 7 6
12 15 17 17 19 20 20 20 22 21 22 23 22 22 20 18 15 11 9 10 12 11 10 11 14 14 10 5 10 11 10 11 8 10 11 5 5 5
14 16 17 18 18 19 19 20 21 20 22 24 23 21 19 16 15 14 10 11 11 12 15 14 12 10 11 7 11 14 15 16 12 12 12 11 7 8

GFSNE_925_spd_123.txt.gz
Wind_Speed
23 21 19 15 15 19 19 19 11 6 8 21 17 24 22 24 27 27 34 35 34 33 36 37 37 35 31 31 28 30 29 25 21 23 22 18 17 17
23 17 13 13 14 15 17 20 20 18 9 8 12 16 17 22 28 31 31 31 33 34 35 39 39 37 35 33 33 31 29 25 25 22 18 16 17 17
13 11 12 12 10 11 10 14 18 18 11 10 11 18 24 26 28 31 31 32 35 37 35 40 42 40 39 36 34 32 28 27 23 21 18 16 17 18
6 4 3 3 3 7 5 7 10 12 13 13 14 17 19 21 26 30 32 34 35 36 37 39 43 42 40 38 37 32 30 26 23 22 20 19 18 18
7 7 6 7 6 7 8 10 12 13 15 16 18 18 20 21 25 30 32 33 34 35 36 38 40 39 40 41 37 34 31 28 25 24 21 19 19 18
7 7 7 6 7 9 10 11 13 15 16 17 18 18 20 21 23 25 25 26 32 34 36 36 36 38 42 40 36 33 30 27 24 22 20 18 17 16
7 8 7 9 9 11 9 12 14 14 15 17 17 18 18 17 15 19 23 26 26 29 32 34 35 36 36 37 36 35 32 29 25 21 18 16 16 15
7 7 7 7 10 9 11 12 13 15 17 17 18 18 20 20 21 21 22 21 9 17 22 30 31 33 36 37 39 39 34 31 24 20 18 17 14 15
5 6 7 8 10 11 13 15 15 16 17 21 20 19 21 23 25 25 25 24 24 25 18 21 27 31 34 36 38 38 34 28 24 20 17 14 13 15
6 7 8 9 9 14 18 19 19 21 20 22 23 25 27 27 29 28 28 28 27 29 26 11 17 24 26 32 32 30 30 29 22 19 18 14 12 14
5 5 6 6 11 15 17 17 18 19 19 20 22 28 30 29 28 27 22 20 15 18 17 18 15 13 16 24 26 25 22 24 19 16 13 10 12 13
4 5 4 6 13 16 18 18 19 20 25 29 29 28 23 25 25 22 24 20 19 6 15 12 11 9 3 10 20 22 22 20 18 15 13 12 8 9
6 7 8 13 17 18 18 15 17 24 24 23 23 26 27 28 27 23 25 23 20 19 17 12 8 8 4 2 5 15 20 18 19 15 13 8 7 6
9 10 14 17 20 19 16 17 20 20 18 20 20 20 20 23 24 27 27 24 21 23 23 16 8 15 8 4 3 10 13 17 19 12 9 7 7 5
9 13 16 18 19 17 16 18 18 17 18 19 19 19 22 26 28 26 22 19 15 12 11 15 17 13 13 5 4 6 8 8 14 13 8 6 5 0
11 14 13 14 13 15 16 15 16 17 18 18 19 23 23 24 24 23 19 17 11 8 5 8 11 9 9 6 7 11 10 6 15 12 10 8 5 5
16 14 13 12 12 13 14 15 16 18 17 18 20 22 23 22 21 21 15 12 9 5 5 3 4 6 5 5 4 9 10 8 14 17 13 10 7 7
12 13 12 13 14 15 17 18 17 18 18 21 21 20 21 20 20 18 14 10 10 7 4 5 8 7 5 7 7 9 8 11 13 16 12 11 9 8
10 10 11 12 14 15 17 18 20 19 21 19 20 21 20 21 18 14 14 11 10 9 6 8 11 5 2 1 3 6 7 13 16 15 10 5 9 10
9 10 12 13 14 15 16 17 19 21 21 20 20 22 19 19 16 14 12 11 9 6 7 8 12 11 4 4 5 4 6 15 16 15 12 12 14 12
11 11 12 13 15 17 18 18 19 20 21 21 20 21 21 18 17 15 13 11 10 8 7 8 8 9 9 12 9 7 10 10 14 15 16 13 7 6
11 12 12 14 16 17 19 19 19 20 20 19 20 21 22 19 17 16 13 10 10 10 6 10 12 11 9 5 11 12 14 16 14 14 8 4 4 4
12 13 14 16 18 20 18 18 19 20 21 20 21 21 21 19 18 15 15 11 10 9 12 12 11 10 9 13 17 13 19 21 19 18 17 10 6 7

GFSNE_925_spd_126.txt.gz
Wind_Speed
29 28 26 22 18 20 20 21 13 6 6 13 9 15 18 21 17 17 18 25 27 30 29 29 30 29 29 34 37 36 31 28 28 25 26 23 23 17
20 16 17 18 14 14 15 17 18 13 5 6 10 16 14 11 19 23 25 26 28 28 29 31 32 30 31 36 41 38 32 33 33 32 28 23 20 18
15 13 11 8 8 7 5 3 5 6 4 4 10 12 16 23 26 28 28 30 31 33 35 35 33 30 32 35 40 40 37 37 36 32 27 22 19 18
11 9 7 5 6 6 6 8 8 11 9 8 14 16 19 20 22 24 26 28 29 31 33 34 33 32 31 36 40 39 40 38 37 32 29 25 20 19
13 11 9 7 7 8 9 8 9 10 11 12 14 18 20 23 26 26 28 29 29 30 30 30 29 29 29 33 38 39 42 40 39 34 29 26 22 21
12 9 8 8 8 8 8 9 11 12 12 13 14 17 20 22 23 25 25 25 29 30 31 32 32 31 27 27 32 41 43 43 39 34 29 27 25 22
10 9 10 9 10 8 9 10 12 12 12 13 12 15 16 18 19 21 21 23 26 28 31 31 32 32 31 28 25 36 43 42 39 34 30 28 26 22
8 8 9 7 6 5 6 8 9 12 13 11 14 13 14 18 20 22 21 19 11 20 26 28 32 34 36 33 32 28 38 42 38 34 28 23 20 19
8 8 6 7 6 7 10 11 10 11 11 13 15 17 20 21 23 23 22 23 23 25 27 26 26 30 34 35 33 31 31 39 39 31 27 22 22 18
4 4 6 6 9 12 15 17 17 16 16 16 17 19 21 25 28 27 29 26 25 23 25 15 23 27 31 33 29 30 28 30 37 32 26 24 24 19
6 6 7 4 8 11 12 13 14 15 14 15 19 21 22 21 21 23 20 19 14 19 22 19 21 24 25 29 26 25 24 24 29 28 24 23 19 15
4 4 3 4 8 11 13 14 13 14 17 20 19 20 18 17 18 18 21 17 14 10 8 7 14 10 6 8 11 13 16 17 20 20 20 17 15 11
7 6 7 9 13 14 12 10 12 16 17 16 18 18 19 18 19 21 23 21 18 15 21 15 8 7 6 7 7 10 12 14 15 15 13 11 10 7
9 10 12 12 12 12 10 11 12 13 14 14 16 16 18 23 25 26 24 20 17 19 21 19 12 11 6 3 3 4 7 11 16 17 13 9 7 7
12 11 13 12 13 12 11 12 12 15 16 14 14 14 18 24 22 25 24 20 17 15 14 14 15 12 12 7 2 2 3 6 11 13 8 6 2 4
13 15 14 14 12 13 14 14 15 16 16 16 17 21 22 21 22 23 23 20 17 13 12 12 10 10 10 7 6 4 6 4 11 9 5 3 3 1
15 16 15 12 11 13 14 15 17 17 17 17 18 21 20 20 20 21 21 18 9 12 13 11 5 3 3 3 2 6 9 4 8 12 10 9 7 5
15 16 15 12 12 13 13 15 16 15 15 21 19 18 19 19 19 20 19 17 14 14 14 11 3 3 1 6 7 9 7 7 7 12 12 11 9 7
16 15 13 13 13 14 13 15 15 16 18 18 19 19 20 21 18 18 17 17 17 14 13 12 8 5 1 1 2 3 6 9 11 10 9 5 10 9
12 12 12 12 13 13 13 15 18 18 18 19 20 20 20 20 19 17 17 16 17 16 10 10 10 12 3 3 3 7 2 7 15 12 15 18 16 11
14 14 12 12 12 14 15 18 18 19 18 20 21 20 21 21 20 18 18 17 14 12 9 12 11 8 7 9 8 7 9 5 11 12 18 16 9 6
14 13 13 14 15 16 18 18 20 21 20 19 20 23 23 20 20 20 19 15 14 13 13 9 8 9 8 4 9 10 14 13 12 11 7 4 4 4
16 16 16 16 16 17 18 20 20 21 22 20 21 23 22 21 22 22 20 17 14 12 10 10 11 10 4 15 17 14 15 16 16 16 17 9 8 12

GFSNE_925_spd_132.txt.gz
Wind_Speed
22 22 22 22 24 28 25 23 16 5 5 6 10 6 10 11 9 6 6 10 12 15 18 21 24 26 28 27 23 22 24 24 25 25 27 29 27 31
19 21 23 23 23 26 25 23 22 12 3 6 3 5 3 2 4 5 9 13 16 16 17 18 19 20 21 22 23 24 25 26 25 26 26 28 29 36
19 20 19 19 18 12 10 12 8 5 2 1 3 2 4 9 12 13 14 16 17 17 18 19 20 21 22 22 22 22 22 22 24 27 29 30 31 35
1 5 8 8 7 12 9 8 8 5 3 1 3 5 10 11 13 15 15 16 16 16 18 21 24 25 23 22 22 22 22 24 24 25 28 32 34 37
9 10 9 5 10 7 8 5 6 5 4 3 5 5 7 13 17 15 18 17 19 22 22 23 24 21 22 25 24 25 29 29 26 26 27 30 34 35
11 15 10 8 11 10 8 9 8 6 5 4 4 8 10 14 12 17 22 23 25 25 21 20 21 26 29 26 28 26 27 24 24 25 27 28 28 28
14 19 12 11 12 10 9 10 9 8 6 5 6 6 8 13 14 14 14 19 21 19 18 29 29 31 33 32 28 29 27 27 25 27 27 26 26 31
14 13 9 7 7 10 10 9 8 8 8 6 5 7 9 15 17 18 16 17 6 13 25 26 30 32 34 33 28 26 27 27 25 26 26 25 23 27
9 7 7 8 9 10 10 10 9 8 6 7 8 11 15 17 18 19 18 17 17 25 27 20 27 30 30 29 28 29 24 22 23 24 24 24 25 24
7 6 6 6 9 12 12 12 12 11 9 9 11 13 13 17 17 17 19 20 21 24 23 13 21 26 25 32 20 17 19 22 26 26 28 28 25 23
7 6 5 6 7 10 13 14 14 13 13 11 12 14 13 14 14 18 14 14 13 18 23 16 14 23 24 21 14 13 20 25 25 29 25 23 18 19
5 5 3 5 9 11 14 15 16 16 16 18 19 16 13 13 13 15 19 15 15 10 9 13 18 12 7 10 14 20 27 25 27 23 16 4 13 15
3 4 4 6 9 9 9 10 10 13 16 18 18 15 13 14 15 17 16 17 17 16 20 16 12 16 7 12 13 24 19 30 26 14 5 5 7 8
3 4 5 6 9 7 7 8 9 10 14 16 16 16 17 19 23 21 19 18 19 21 24 20 11 14 14 15 11 16 24 20 19 14 12 12 10 10
4 5 8 9 8 9 7 6 8 11 13 14 15 17 19 22 22 22 20 20 19 19 18 14 15 18 17 14 14 18 17 14 12 11 10 9 10 12
9 8 8 8 9 7 7 8 8 10 11 13 15 20 22 21 22 23 22 22 20 19 18 17 16 16 17 15 15 18 14 8 14 10 8 10 10 9
8 9 10 10 11 7 7 8 6 10 10 13 17 18 20 21 20 23 21 20 17 16 18 21 17 16 15 14 10 13 15 9 10 9 9 10 9 9
10 11 10 10 12 7 7 7 8 8 11 16 17 17 19 18 20 21 23 16 17 17 18 23 19 16 9 8 8 10 8 8 8 5 4 8 10 10
10 11 11 11 9 7 7 7 9 10 13 14 16 18 17 18 19 20 16 16 18 18 20 21 16 9 1 2 6 6 9 9 6 3 4 6 8 13
10 11 12 13 11 9 9 9 11 12 14 14 16 19 19 19 18 18 17 17 18 20 18 16 16 14 6 4 3 7 8 6 4 3 3 4 7 8
12 11 10 11 10 10 11 12 12 14 13 16 20 19 19 18 18 19 18 18 19 17 16 16 19 13 11 7 3 2 6 3 2 4 1 4 6 9
12 12 12 13 13 13 13 13 14 15 18 17 18 17 18 18 18 19 18 18 18 18 19 23 16 8 6 4 2 1 3 3 3 4 2 2 4 3
12 13 14 14 15 15 15 16 17 19 18 17 17 17 18 20 18 19 19 20 19 19 19 19 13 7 6 4 3 3 6 5 7 6 4 3 1 8

GFSNE_925_spd_135.txt.gz
Wind_Speed
12 14 15 16 16 18 21 21 12 7 5 6 10 3 6 7 7 6 7 5 3 7 10 13 16 17 17 18 19 19 19 20 22 24 25 25 28 27
10 11 13 15 18 20 20 20 21 16 8 8 6 7 6 4 5 3 6 10 11 11 12 13 14 16 18 19 19 20 22 22 22 21 22 24 27 28
9 8 11 14 16 13 13 15 14 12 7 2 4 3 3 9 11 14 14 14 12 11 11 12 15 17 19 19 19 20 21 21 22 24 24 24 25 28
1 4 3 2 4 4 4 6 6 6 2 3 6 9 10 13 12 11 10 10 12 14 16 17 15 17 15 16 20 21 22 22 24 26 25 25 25 26
7 8 8 9 11 10 9 7 7 8 6 4 3 5 4 9 16 14 15 15 15 17 16 11 11 17 19 20 21 21 23 22 22 23 23 24 25 27
12 11 11 11 11 11 11 7 6 8 8 7 4 4 6 11 14 17 21 21 23 20 13 14 23 23 23 21 21 22 20 20 23 24 25 25 27 28
14 15 15 14 12 13 11 9 9 11 10 9 6 6 7 11 13 12 11 17 23 11 15 29 30 29 29 26 24 22 22 23 24 24 24 25 27 27
14 13 12 10 11 14 11 11 10 8 7 4 4 4 5 10 12 12 14 14 5 7 25 30 25 30 29 26 26 25 23 22 19 21 24 25 26 27
10 10 11 10 9 9 8 7 7 7 7 5 4 6 8 9 12 13 12 12 11 22 23 18 23 25 26 30 31 21 17 18 19 23 25 29 30 30
8 8 9 9 7 6 7 8 8 7 7 5 6 8 10 12 12 14 16 16 16 20 18 12 22 24 28 31 21 15 15 24 25 25 30 28 28 28
7 7 6 6 6 5 7 7 7 7 5 6 10 9 9 9 10 14 15 15 13 18 23 9 13 22 21 25 13 11 24 23 24 30 24 20 25 15
7 7 4 3 4 4 5 6 6 6 8 12 13 12 10 9 9 11 14 13 13 7 4 15 17 14 7 10 14 23 24 20 29 23 13 15 13 12
6 5 3 1 3 3 4 6 6 6 10 12 13 12 13 13 15 14 13 15 14 14 22 19 12 17 7 11 20 23 16 25 25 23 15 13 13 12
3 1 0 1 4 3 4 3 3 8 11 12 12 14 14 18 19 16 16 14 16 20 20 19 14 14 14 15 12 18 24 22 19 18 17 15 12 13
2 1 4 5 5 6 4 2 6 8 10 10 12 13 18 18 17 17 18 17 15 15 16 16 18 19 18 13 14 18 22 15 18 20 20 16 15 16
4 3 2 4 5 5 4 5 6 7 9 8 12 17 17 19 20 19 22 24 18 16 15 15 17 17 21 21 18 19 18 11 22 21 18 18 16 14
4 4 5 6 7 9 6 6 6 8 8 9 14 16 17 19 21 19 20 23 11 15 18 22 19 18 18 21 16 14 17 18 17 18 16 18 16 12
9 8 7 8 8 10 7 7 7 6 7 10 13 14 17 18 20 19 20 14 14 17 20 22 25 21 13 13 10 12 13 14 17 15 11 13 15 14
12 9 8 7 8 9 9 7 7 7 8 12 14 14 17 20 17 20 20 17 16 18 20 23 20 15 2 2 7 9 10 14 16 15 12 11 10 19
10 9 9 9 9 10 10 10 10 10 11 13 14 16 19 18 18 17 20 17 17 18 19 21 17 18 5 4 4 12 13 12 11 12 11 11 10 11
12 13 12 10 8 10 11 11 12 13 13 12 17 18 17 16 18 19 19 17 17 17 16 17 21 19 15 10 4 7 9 6 7 8 9 8 9 14
16 14 14 12 12 13 14 14 15 15 15 16 18 17 15 15 18 19 17 16 17 18 20 24 22 19 12 4 4 7 7 7 3 4 6 7 4 3
18 16 14 14 14 15 15 16 17 17 17 18 17 16 15 18 19 18 17 18 18 20 19 20 20 17 10 7 6 4 4 5 3 3 10 9 8 11

GFSNE_925_spd_138.txt.gz
Wind_Speed
13 13 11 9 12 12 14 16 10 3 3 6 6 0 4 5 6 6 6 3 2 3 6 9 9 10 12 14 14 14 15 16 18 20 20 20 21 23
7 10 8 7 7 7 8 12 14 8 4 5 3 7 5 4 5 4 5 7 9 10 9 11 14 14 14 15 16 16 16 17 19 19 21 22 23 24
3 2 1 2 6 6 5 6 6 4 4 3 5 5 4 5 7 8 9 11 12 13 13 13 14 13 14 12 12 16 17 17 19 21 22 23 24 24
5 3 4 3 3 3 4 5 6 6 5 4 4 4 5 7 11 11 10 9 11 11 11 11 8 10 13 14 16 16 17 17 19 20 21 22 23 24
9 9 9 8 10 9 9 9 9 9 9 6 4 5 3 8 10 9 9 8 11 13 8 6 10 16 16 15 15 15 17 17 17 18 20 22 23 24
12 13 12 11 11 10 10 9 8 8 8 7 4 3 5 7 7 13 16 19 21 16 6 10 19 19 17 15 16 16 15 16 19 20 21 21 22 24
14 15 15 15 14 11 10 10 8 7 7 6 4 3 5 7 11 13 14 21 21 3 15 25 25 24 23 19 19 17 19 18 17 17 18 20 22 24
14 14 12 12 13 12 11 11 8 8 8 3 5 5 5 7 11 13 13 13 4 2 26 27 22 26 23 24 23 20 17 12 14 17 20 22 26 30
10 10 10 9 8 8 7 7 9 9 8 6 4 2 3 6 10 12 11 12 14 23 23 21 24 24 25 28 22 18 14 12 19 22 23 26 28 28
6 6 7 7 6 5 4 5 6 6 5 4 3 4 5 7 6 8 10 13 18 18 14 8 17 20 30 29 17 11 10 21 20 21 25 23 23 22
6 6 6 6 4 2 2 4 4 4 3 4 6 5 5 4 5 8 11 13 10 15 13 5 11 22 24 22 10 8 21 21 20 23 23 23 20 20
8 7 4 2 2 1 1 1 1 1 3 6 6 5 5 6 6 8 10 12 10 7 3 14 15 10 6 13 12 25 26 15 25 22 21 19 18 20
7 7 6 3 1 1 3 1 2 1 3 6 6 6 6 9 12 10 9 10 10 12 20 17 11 16 7 12 18 21 12 29 25 24 19 22 18 17
6 5 4 4 3 3 4 1 3 4 5 6 6 8 13 15 13 12 11 11 13 18 21 18 16 16 16 18 12 23 28 25 21 23 22 24 20 17
7 5 3 4 5 5 5 3 5 6 6 6 6 10 13 12 13 12 12 14 16 14 12 13 18 19 19 18 17 21 22 19 22 18 26 25 21 20
9 7 5 4 4 4 4 6 6 5 6 5 7 12 13 14 15 14 17 24 15 13 14 12 15 16 21 23 21 22 19 11 21 24 24 25 21 17
10 9 8 6 3 5 7 7 6 6 6 6 9 13 14 16 18 16 16 17 11 14 20 23 19 18 19 19 17 18 17 17 19 24 23 21 25 16
13 12 12 9 7 6 8 7 6 6 7 7 8 12 14 16 19 19 16 16 16 15 19 24 25 18 16 11 11 16 13 15 20 24 19 18 21 18
16 16 14 11 9 8 7 10 9 8 7 9 10 11 14 16 16 17 19 18 16 18 22 22 22 14 4 3 10 10 16 17 17 17 17 18 13 22
18 16 15 13 12 11 8 9 10 10 10 10 11 11 15 15 17 17 19 19 17 18 19 23 19 15 9 8 5 20 13 13 15 16 19 20 16 11
18 16 15 13 13 11 9 10 11 11 12 12 13 15 16 15 16 17 19 16 16 18 16 18 24 19 19 15 7 9 13 11 10 12 14 12 12 11
17 16 15 14 14 13 10 10 12 12 13 15 15 16 15 13 15 17 18 17 18 18 20 25 24 21 16 8 10 14 13 14 9 9 10 7 5 3
20 18 16 14 13 14 13 14 14 15 15 16 17 17 14 15 14 16 16 16 17 19 20 21 23 19 14 13 11 12 11 13 12 8 12 9 9 8

GFSNE_925_spd_141.txt.gz
Wind_Speed
14 14 15 13 9 10 14 10 3 3 3 7 6 7 7 6 5 6 5 3 3 5 3 3 5 8 9 11 13 13 12 12 13 15 17 17 19 21
3 6 6 3 5 6 7 8 7 5 2 1 3 6 6 3 2 2 3 3 5 7 7 8 10 10 10 10 9 9 11 14 14 16 18 18 19 22
4 4 5 4 4 4 3 3 4 4 2 3 4 4 2 2 2 4 6 7 9 12 10 9 8 5 7 8 10 13 14 15 16 17 18 18 20 22
6 5 6 5 7 6 6 6 5 3 2 3 4 3 2 5 8 9 9 8 8 7 7 3 3 6 8 11 12 13 14 14 16 17 17 18 19 22
7 7 8 7 9 8 8 9 8 8 7 7 5 3 1 4 3 5 7 7 9 7 4 4 7 11 13 13 11 13 14 15 15 15 17 19 21 21
12 12 11 10 11 9 9 9 8 9 9 9 6 4 2 1 3 7 8 10 12 5 1 6 14 14 13 9 10 11 12 13 16 16 16 16 18 20
13 14 13 12 10 9 9 8 7 8 8 9 5 2 2 1 3 6 8 13 7 1 9 15 18 15 15 12 13 13 16 15 12 12 13 17 19 22
12 12 11 11 12 12 12 11 8 7 5 5 3 2 1 2 4 7 9 10 3 3 18 20 15 13 13 13 17 16 15 11 11 13 16 19 22 23
9 8 8 8 7 8 8 9 10 11 9 6 5 2 2 4 6 7 8 10 9 13 14 12 8 13 13 17 19 13 9 10 16 19 20 20 23 23
5 5 5 5 5 5 5 6 7 7 7 7 5 4 4 6 6 6 7 12 16 10 7 6 11 14 23 19 11 5 6 17 20 16 22 24 22 23
5 4 4 4 2 5 4 4 4 3 3 4 4 2 2 2 4 6 7 10 8 6 5 5 12 22 21 12 10 7 20 20 16 23 25 21 20 23
7 7 4 2 1 1 3 1 1 1 2 4 3 2 3 3 5 8 7 6 6 9 1 12 11 10 9 11 18 23 21 19 21 23 21 20 19 21
10 9 7 4 3 2 3 2 3 3 3 5 4 4 4 7 7 6 6 6 7 10 14 11 10 17 9 15 21 25 21 20 25 22 19 19 20 21
11 9 8 7 5 5 6 4 6 5 4 4 3 3 5 6 9 9 8 9 12 17 21 16 11 17 19 19 17 21 25 24 18 22 19 24 25 22
10 9 9 8 8 8 7 6 8 6 5 3 2 3 6 8 9 9 8 10 15 7 6 9 13 16 18 19 17 22 23 18 23 15 21 23 25 24
11 11 11 9 7 6 6 8 9 7 5 3 3 6 7 8 8 10 11 14 12 11 12 10 12 13 16 17 17 23 19 12 19 22 22 26 23 19
15 14 12 11 9 8 7 8 9 8 6 5 4 5 6 8 9 10 11 11 7 12 16 18 18 18 14 17 15 17 15 17 17 19 22 22 23 17
19 16 13 14 13 11 9 6 8 8 7 5 5 6 8 10 11 11 11 10 11 12 13 15 18 18 12 11 10 15 12 16 19 20 19 17 21 22
20 17 16 18 18 15 12 10 9 9 8 8 6 7 9 10 10 11 11 11 11 12 13 13 13 11 7 8 12 9 15 20 19 17 15 15 19 26
22 19 19 20 19 16 14 12 11 10 10 9 8 9 10 11 10 9 10 11 11 13 14 13 10 10 9 7 12 22 18 17 13 17 17 18 21 17
23 24 23 20 20 17 15 13 12 11 11 11 11 12 11 12 11 10 11 11 12 10 13 14 16 16 17 14 7 13 16 15 13 16 18 18 15 9
24 25 22 20 19 17 15 13 13 12 11 12 14 13 11 12 13 11 10 10 11 11 14 18 20 17 9 7 13 14 14 15 13 9 9 10 8 5
25 22 20 19 18 16 17 16 15 14 13 14 14 12 12 13 12 11 10 10 11 13 13 16 14 12 10 11 13 12 13 13 10 7 8 9 10 10

GFSNE_925_spd_144.txt.gz
Wind_Speed
14 15 17 17 18 17 16 13 7 3 3 9 4 5 5 4 3 5 5 5 6 5 7 10 12 11 12 14 15 17 15 11 11 13 14 16 16 18
6 6 7 5 4 6 7 7 6 5 2 6 3 6 4 4 3 4 4 6 9 10 11 13 12 10 10 11 9 9 11 12 13 14 15 15 17 18
5 4 3 3 2 1 1 2 3 2 3 3 3 4 2 2 3 4 6 8 11 14 13 11 10 5 7 10 11 12 13 14 15 15 14 15 16 17
3 3 3 3 4 3 3 3 2 2 3 4 4 3 3 1 4 5 8 9 10 10 10 7 5 6 9 11 13 13 13 14 14 16 14 14 16 18
3 4 4 4 4 4 4 5 4 3 2 5 4 3 1 2 5 6 8 7 7 10 11 8 9 11 12 11 11 12 13 13 13 16 17 17 18 18
6 7 7 6 5 5 5 5 3 4 5 7 5 3 2 2 4 6 8 9 12 8 6 8 12 15 13 12 11 13 15 14 16 17 16 16 15 17
8 10 11 10 9 6 5 6 5 5 5 5 5 3 3 4 5 7 8 13 10 4 9 13 13 12 9 10 10 11 14 15 15 14 14 15 17 21
5 6 7 9 10 10 11 9 6 4 4 4 4 2 1 2 4 5 7 6 3 3 13 16 12 10 10 10 13 16 14 12 11 12 16 19 21 23
4 4 4 4 5 5 7 10 11 10 8 5 4 3 2 1 4 5 6 7 8 13 14 10 8 11 11 15 17 14 10 8 14 17 18 17 23 25
4 3 3 3 3 3 4 5 5 6 6 5 4 2 1 2 4 5 8 11 10 6 5 5 9 14 18 15 11 7 4 16 17 17 17 25 25 23
4 3 3 3 2 2 2 3 3 3 2 2 1 1 1 1 2 5 6 10 8 2 5 6 10 20 17 11 7 8 18 15 19 18 23 23 23 22
7 6 6 4 5 3 2 3 3 3 2 0 1 1 2 3 5 4 4 6 6 6 1 11 11 11 10 9 11 19 17 20 18 20 22 20 19 21
9 9 9 9 6 6 3 2 2 2 2 1 2 2 3 4 4 4 4 5 6 8 9 9 10 14 8 13 24 22 20 21 24 21 17 18 19 20
11 10 10 11 8 6 5 5 4 4 3 3 3 3 3 4 5 6 7 7 9 15 17 13 9 12 17 19 18 22 26 24 20 20 22 21 20 22
11 11 11 10 9 8 9 8 7 6 5 5 4 4 4 5 7 7 8 10 13 12 8 10 12 16 18 19 20 23 24 20 21 13 23 21 23 25
14 12 12 10 10 8 7 7 9 8 7 6 5 4 5 5 6 6 7 9 12 9 11 11 12 13 17 19 19 23 21 14 20 22 22 25 24 21
14 12 13 12 11 9 7 8 8 8 8 7 5 5 5 6 6 6 7 8 8 13 14 11 13 16 20 22 17 19 18 17 18 22 24 25 25 21
20 16 16 15 14 11 10 9 8 9 9 7 7 5 5 6 7 6 6 8 10 12 13 14 16 17 15 12 15 15 15 17 22 22 21 20 24 24
23 18 17 16 15 13 12 11 10 9 11 10 9 7 7 7 7 6 6 8 10 11 12 13 13 12 8 9 13 11 14 22 23 21 18 19 21 27
24 21 19 17 16 15 14 13 11 9 10 10 10 8 7 7 6 6 6 6 10 13 14 13 11 10 11 9 13 28 19 18 18 20 21 22 23 24
25 21 19 18 18 17 16 15 13 11 11 11 10 10 9 8 7 8 7 6 10 11 13 14 14 17 18 16 10 16 18 16 17 19 22 20 17 17
21 21 20 20 20 19 18 17 13 12 12 12 12 10 10 10 9 9 7 7 8 11 14 16 17 15 13 12 14 18 19 19 19 13 11 10 9 5
21 21 20 22 20 19 20 19 17 14 14 13 12 10 10 10 9 9 8 7 9 11 13 15 15 14 14 15 17 16 17 17 15 15 14 15 19 19

GFSNE_925_spd_147.txt.gz
Wind_Speed
14 14 14 16 16 18 18 18 10 3 2 4 2 3 3 3 3 2 2 0 4 6 8 12 12 13 15 16 16 17 16 12 11 11 11 13 14 16
8 8 10 9 8 7 7 8 7 8 1 2 2 4 4 3 2 0 1 2 6 9 11 12 12 12 10 9 10 10 9 11 12 12 12 12 14 16
7 6 6 7 8 7 6 3 2 3 1 2 3 4 3 1 2 4 6 7 9 12 12 10 7 5 7 9 10 12 11 11 12 13 14 13 14 16
7 7 8 7 7 6 5 5 4 4 3 3 3 2 1 2 4 5 7 7 8 9 10 9 6 7 8 11 13 13 13 12 13 13 13 13 15 16
6 5 7 6 6 6 7 7 7 5 3 4 3 2 1 3 4 5 8 8 8 8 8 8 6 9 12 14 12 11 11 13 12 13 15 16 15 15
4 5 6 7 8 8 7 6 6 7 8 8 6 2 2 2 5 8 7 7 9 7 7 8 10 12 14 13 11 11 12 12 14 15 15 15 13 15
5 6 8 8 8 5 5 6 6 6 7 6 4 3 3 4 6 7 7 13 12 7 9 13 11 12 10 9 10 9 14 15 14 13 12 14 16 17
3 4 3 5 7 9 9 5 5 5 5 4 3 4 3 4 5 6 8 9 3 5 16 18 8 8 10 11 11 16 16 13 10 11 15 17 19 19
4 3 2 2 3 3 7 8 8 7 7 5 5 6 4 4 5 7 8 8 8 15 14 7 8 10 13 16 16 14 11 8 11 17 16 16 18 23
5 5 4 3 2 3 2 4 5 5 6 6 6 3 2 2 4 5 7 10 12 8 8 4 10 15 23 20 11 10 6 13 16 19 18 19 23 24
7 7 6 6 4 4 5 4 3 2 2 3 2 1 1 3 4 5 5 7 4 3 7 6 8 19 17 12 4 5 16 14 20 19 22 23 24 23
10 9 11 7 9 6 4 4 4 4 2 1 3 3 2 4 6 4 4 4 4 5 3 10 11 11 9 7 5 20 16 19 17 23 22 21 20 21
12 11 10 11 8 7 5 4 4 4 4 2 3 3 2 2 2 4 4 3 4 6 7 12 9 12 6 12 20 18 17 19 26 21 20 20 20 22
14 13 12 13 11 9 7 6 5 6 5 4 4 4 4 4 5 6 7 7 8 12 15 13 10 10 13 17 13 23 28 25 21 21 19 21 21 21
17 14 13 13 13 10 10 9 7 8 7 6 6 5 6 7 7 5 6 8 11 12 10 10 14 17 16 15 16 23 24 22 21 15 25 23 25 24
18 16 15 14 14 11 10 10 11 12 9 8 6 5 6 5 5 6 6 8 11 7 9 11 13 13 18 19 19 24 22 13 24 23 26 26 24 23
19 16 15 15 15 14 13 11 11 12 11 9 8 6 6 6 6 6 5 7 7 11 14 12 11 13 18 22 24 19 21 20 21 25 26 26 26 23
20 18 18 18 16 16 15 13 13 12 11 10 9 8 7 7 7 6 6 7 10 12 14 14 14 15 15 12 14 21 20 20 23 26 24 23 25 27
24 20 18 19 18 18 16 15 14 13 11 13 12 10 10 10 8 7 6 7 9 11 12 13 12 12 6 9 16 11 13 29 27 24 21 22 23 31
24 22 20 19 19 20 19 17 16 14 14 13 12 11 11 12 9 8 8 8 8 11 13 11 10 10 8 7 13 29 21 23 22 22 24 26 28 27
26 23 20 21 20 21 20 19 19 18 16 14 13 13 12 12 11 9 9 9 11 11 12 13 13 14 16 17 11 18 23 21 21 24 25 22 20 21
23 23 22 23 21 23 21 20 19 17 16 15 13 13 12 12 12 9 9 9 10 12 13 14 14 13 13 12 14 19 23 25 24 19 18 18 18 6
23 24 25 24 25 23 23 21 19 18 16 14 13 14 14 14 11 9 10 11 12 13 12 14 14 13 13 15 18 18 21 22 21 21 21 21 21 23